<?xml version="1.0" encoding="UTF-8" standalone="no" ?>
<gpx xmlns="http://www.topografix.com/GPX/1/1" xmlns:xsi="http://www.w3.org/2001/XMLSchema-instance" xsi:schemaLocation="http://www.topografix.com/GPX/1/1 http://www.topografix.com/GPX/1/1/gpx.xsd" version="1.1" creator="VisuGPX - https://www.visugpx.com">
  <metadata>
    <name>Mont Ventoux</name>
    <desc><![CDATA[grp_trc:]]></desc>
  </metadata>
  <trk>
    <name><![CDATA[18 déc. 2020]]></name>
    <cmt><![CDATA[18:06:12]]></cmt>
    <desc><![CDATA[comment ...]]></desc>
    <trkseg>
      <trkpt lat="44.17593" lon="5.44771">
        <ele>612.4</ele>
        <time>2020-12-18T17:06:12Z</time>
      </trkpt>
      <trkpt lat="44.17551" lon="5.44772">
        <ele>612</ele>
        <time>2020-12-18T17:06:12Z</time>
      </trkpt>
      <trkpt lat="44.17542" lon="5.44746">
        <ele>610.7</ele>
        <time>2020-12-18T17:06:12Z</time>
      </trkpt>
      <trkpt lat="44.17546" lon="5.44693">
        <ele>607.9</ele>
        <time>2020-12-18T17:06:12Z</time>
      </trkpt>
      <trkpt lat="44.17523" lon="5.44687">
        <ele>607.5</ele>
        <time>2020-12-18T17:06:12Z</time>
      </trkpt>
      <trkpt lat="44.17468" lon="5.44669">
        <ele>606.9</ele>
        <time>2020-12-18T17:06:12Z</time>
      </trkpt>
      <trkpt lat="44.17438" lon="5.44601">
        <ele>603.6</ele>
        <time>2020-12-18T17:06:12Z</time>
      </trkpt>
      <trkpt lat="44.17441" lon="5.44564">
        <ele>602.3</ele>
        <time>2020-12-18T17:06:12Z</time>
      </trkpt>
      <trkpt lat="44.17448" lon="5.44518">
        <ele>599.7</ele>
        <time>2020-12-18T17:06:12Z</time>
      </trkpt>
      <trkpt lat="44.17483" lon="5.44493">
        <ele>598.8</ele>
        <time>2020-12-18T17:06:12Z</time>
      </trkpt>
      <trkpt lat="44.1752" lon="5.44453">
        <ele>598.2</ele>
        <time>2020-12-18T17:06:12Z</time>
      </trkpt>
      <trkpt lat="44.17565" lon="5.44439">
        <ele>602.3</ele>
        <time>2020-12-18T17:06:12Z</time>
      </trkpt>
      <trkpt lat="44.1756" lon="5.44412">
        <ele>601.9</ele>
        <time>2020-12-18T17:06:12Z</time>
      </trkpt>
      <trkpt lat="44.17552" lon="5.44379">
        <ele>601</ele>
        <time>2020-12-18T17:06:12Z</time>
      </trkpt>
      <trkpt lat="44.17541" lon="5.44305">
        <ele>600.9</ele>
        <time>2020-12-18T17:06:12Z</time>
      </trkpt>
      <trkpt lat="44.17522" lon="5.44177">
        <ele>597.9</ele>
        <time>2020-12-18T17:06:12Z</time>
      </trkpt>
      <trkpt lat="44.17512" lon="5.44156">
        <ele>595.5</ele>
        <time>2020-12-18T17:06:12Z</time>
      </trkpt>
      <trkpt lat="44.17473" lon="5.44167">
        <ele>590.1</ele>
        <time>2020-12-18T17:06:12Z</time>
      </trkpt>
      <trkpt lat="44.17467" lon="5.44118">
        <ele>590</ele>
        <time>2020-12-18T17:06:12Z</time>
      </trkpt>
      <trkpt lat="44.17457" lon="5.4401">
        <ele>587.8</ele>
        <time>2020-12-18T17:06:12Z</time>
      </trkpt>
      <trkpt lat="44.1745" lon="5.43953">
        <ele>587.2</ele>
        <time>2020-12-18T17:06:12Z</time>
      </trkpt>
      <trkpt lat="44.17433" lon="5.43787">
        <ele>584.3</ele>
        <time>2020-12-18T17:06:12Z</time>
      </trkpt>
      <trkpt lat="44.1743" lon="5.43737">
        <ele>584</ele>
        <time>2020-12-18T17:06:12Z</time>
      </trkpt>
      <trkpt lat="44.17425" lon="5.43686">
        <ele>582.9</ele>
        <time>2020-12-18T17:06:12Z</time>
      </trkpt>
      <trkpt lat="44.17413" lon="5.43647">
        <ele>581.3</ele>
        <time>2020-12-18T17:06:12Z</time>
      </trkpt>
      <trkpt lat="44.17389" lon="5.43644">
        <ele>581.2</ele>
        <time>2020-12-18T17:06:12Z</time>
      </trkpt>
      <trkpt lat="44.17346" lon="5.43636">
        <ele>580.9</ele>
        <time>2020-12-18T17:06:12Z</time>
      </trkpt>
      <trkpt lat="44.17298" lon="5.43629">
        <ele>579.9</ele>
        <time>2020-12-18T17:06:12Z</time>
      </trkpt>
      <trkpt lat="44.17255" lon="5.43622">
        <ele>579.1</ele>
        <time>2020-12-18T17:06:12Z</time>
      </trkpt>
      <trkpt lat="44.17213" lon="5.43601">
        <ele>578.8</ele>
        <time>2020-12-18T17:06:12Z</time>
      </trkpt>
      <trkpt lat="44.17183" lon="5.43567">
        <ele>578.4</ele>
        <time>2020-12-18T17:06:12Z</time>
      </trkpt>
      <trkpt lat="44.17137" lon="5.43521">
        <ele>577.8</ele>
        <time>2020-12-18T17:06:12Z</time>
      </trkpt>
      <trkpt lat="44.17086" lon="5.43475">
        <ele>577</ele>
        <time>2020-12-18T17:06:12Z</time>
      </trkpt>
      <trkpt lat="44.1705" lon="5.43444">
        <ele>576.2</ele>
        <time>2020-12-18T17:06:12Z</time>
      </trkpt>
      <trkpt lat="44.17023" lon="5.4342">
        <ele>577.2</ele>
        <time>2020-12-18T17:06:12Z</time>
      </trkpt>
      <trkpt lat="44.16996" lon="5.43395">
        <ele>577.7</ele>
        <time>2020-12-18T17:06:12Z</time>
      </trkpt>
      <trkpt lat="44.16974" lon="5.43367">
        <ele>578.2</ele>
        <time>2020-12-18T17:06:12Z</time>
      </trkpt>
      <trkpt lat="44.16948" lon="5.43333">
        <ele>581.3</ele>
        <time>2020-12-18T17:06:12Z</time>
      </trkpt>
      <trkpt lat="44.16925" lon="5.43295">
        <ele>581.1</ele>
        <time>2020-12-18T17:06:12Z</time>
      </trkpt>
      <trkpt lat="44.16895" lon="5.43269">
        <ele>582.3</ele>
        <time>2020-12-18T17:06:12Z</time>
      </trkpt>
      <trkpt lat="44.16854" lon="5.43267">
        <ele>581.3</ele>
        <time>2020-12-18T17:06:12Z</time>
      </trkpt>
      <trkpt lat="44.16823" lon="5.43286">
        <ele>581.3</ele>
        <time>2020-12-18T17:06:12Z</time>
      </trkpt>
      <trkpt lat="44.16763" lon="5.43295">
        <ele>579.8</ele>
        <time>2020-12-18T17:06:12Z</time>
      </trkpt>
      <trkpt lat="44.16737" lon="5.4328">
        <ele>580.1</ele>
        <time>2020-12-18T17:06:12Z</time>
      </trkpt>
      <trkpt lat="44.16474" lon="5.43195">
        <ele>572.1</ele>
        <time>2020-12-18T17:06:12Z</time>
      </trkpt>
      <trkpt lat="44.16451" lon="5.43175">
        <ele>570.8</ele>
        <time>2020-12-18T17:06:12Z</time>
      </trkpt>
      <trkpt lat="44.16395" lon="5.43147">
        <ele>569.9</ele>
        <time>2020-12-18T17:06:12Z</time>
      </trkpt>
      <trkpt lat="44.16344" lon="5.43132">
        <ele>570.5</ele>
        <time>2020-12-18T17:06:12Z</time>
      </trkpt>
      <trkpt lat="44.16299" lon="5.43138">
        <ele>571.5</ele>
        <time>2020-12-18T17:06:12Z</time>
      </trkpt>
      <trkpt lat="44.16236" lon="5.43177">
        <ele>575</ele>
        <time>2020-12-18T17:06:12Z</time>
      </trkpt>
      <trkpt lat="44.1609" lon="5.43278">
        <ele>573.7</ele>
        <time>2020-12-18T17:06:12Z</time>
      </trkpt>
      <trkpt lat="44.16053" lon="5.43292">
        <ele>575.3</ele>
        <time>2020-12-18T17:06:12Z</time>
      </trkpt>
      <trkpt lat="44.16018" lon="5.43297">
        <ele>580.1</ele>
        <time>2020-12-18T17:06:12Z</time>
      </trkpt>
      <trkpt lat="44.15967" lon="5.4334">
        <ele>579.2</ele>
        <time>2020-12-18T17:06:12Z</time>
      </trkpt>
      <trkpt lat="44.15909" lon="5.43351">
        <ele>588.2</ele>
        <time>2020-12-18T17:06:12Z</time>
      </trkpt>
      <trkpt lat="44.15883" lon="5.43364">
        <ele>591.2</ele>
        <time>2020-12-18T17:06:12Z</time>
      </trkpt>
      <trkpt lat="44.15862" lon="5.43405">
        <ele>587.9</ele>
        <time>2020-12-18T17:06:12Z</time>
      </trkpt>
      <trkpt lat="44.15843" lon="5.43437">
        <ele>589.9</ele>
        <time>2020-12-18T17:06:12Z</time>
      </trkpt>
      <trkpt lat="44.15804" lon="5.43467">
        <ele>593.2</ele>
        <time>2020-12-18T17:06:12Z</time>
      </trkpt>
      <trkpt lat="44.15778" lon="5.4348">
        <ele>595.6</ele>
        <time>2020-12-18T17:06:12Z</time>
      </trkpt>
      <trkpt lat="44.15712" lon="5.43499">
        <ele>599.6</ele>
        <time>2020-12-18T17:06:12Z</time>
      </trkpt>
      <trkpt lat="44.15664" lon="5.4352">
        <ele>602.8</ele>
        <time>2020-12-18T17:06:12Z</time>
      </trkpt>
      <trkpt lat="44.15626" lon="5.43519">
        <ele>615.2</ele>
        <time>2020-12-18T17:06:12Z</time>
      </trkpt>
      <trkpt lat="44.15597" lon="5.43559">
        <ele>606.2</ele>
        <time>2020-12-18T17:06:12Z</time>
      </trkpt>
      <trkpt lat="44.15566" lon="5.43589">
        <ele>602.5</ele>
        <time>2020-12-18T17:06:12Z</time>
      </trkpt>
      <trkpt lat="44.15539" lon="5.43585">
        <ele>605.3</ele>
        <time>2020-12-18T17:06:12Z</time>
      </trkpt>
      <trkpt lat="44.15478" lon="5.43565">
        <ele>611.3</ele>
        <time>2020-12-18T17:06:12Z</time>
      </trkpt>
      <trkpt lat="44.15417" lon="5.43553">
        <ele>610.7</ele>
        <time>2020-12-18T17:06:12Z</time>
      </trkpt>
      <trkpt lat="44.15364" lon="5.43553">
        <ele>608.5</ele>
        <time>2020-12-18T17:06:12Z</time>
      </trkpt>
      <trkpt lat="44.15338" lon="5.43529">
        <ele>610.2</ele>
        <time>2020-12-18T17:06:12Z</time>
      </trkpt>
      <trkpt lat="44.15305" lon="5.43497">
        <ele>610.2</ele>
        <time>2020-12-18T17:06:12Z</time>
      </trkpt>
      <trkpt lat="44.15279" lon="5.43488">
        <ele>609.5</ele>
        <time>2020-12-18T17:06:12Z</time>
      </trkpt>
      <trkpt lat="44.15233" lon="5.43473">
        <ele>606.5</ele>
        <time>2020-12-18T17:06:12Z</time>
      </trkpt>
      <trkpt lat="44.15184" lon="5.43493">
        <ele>609.9</ele>
        <time>2020-12-18T17:06:12Z</time>
      </trkpt>
      <trkpt lat="44.15158" lon="5.4346">
        <ele>612.7</ele>
        <time>2020-12-18T17:06:12Z</time>
      </trkpt>
      <trkpt lat="44.15131" lon="5.43437">
        <ele>616.7</ele>
        <time>2020-12-18T17:06:12Z</time>
      </trkpt>
      <trkpt lat="44.15047" lon="5.43392">
        <ele>628.6</ele>
        <time>2020-12-18T17:06:12Z</time>
      </trkpt>
      <trkpt lat="44.15021" lon="5.4337">
        <ele>632.7</ele>
        <time>2020-12-18T17:06:12Z</time>
      </trkpt>
      <trkpt lat="44.14994" lon="5.43355">
        <ele>637</ele>
        <time>2020-12-18T17:06:12Z</time>
      </trkpt>
      <trkpt lat="44.14948" lon="5.43329">
        <ele>643.7</ele>
        <time>2020-12-18T17:06:12Z</time>
      </trkpt>
      <trkpt lat="44.14922" lon="5.43319">
        <ele>647.2</ele>
        <time>2020-12-18T17:06:12Z</time>
      </trkpt>
      <trkpt lat="44.1488" lon="5.43302">
        <ele>651.7</ele>
        <time>2020-12-18T17:06:12Z</time>
      </trkpt>
      <trkpt lat="44.14854" lon="5.43289">
        <ele>654.1</ele>
        <time>2020-12-18T17:06:12Z</time>
      </trkpt>
      <trkpt lat="44.14833" lon="5.43252">
        <ele>657.9</ele>
        <time>2020-12-18T17:06:12Z</time>
      </trkpt>
      <trkpt lat="44.14748" lon="5.43169">
        <ele>671.2</ele>
        <time>2020-12-18T17:06:12Z</time>
      </trkpt>
      <trkpt lat="44.14722" lon="5.43145">
        <ele>675.9</ele>
        <time>2020-12-18T17:06:12Z</time>
      </trkpt>
      <trkpt lat="44.14577" lon="5.43078">
        <ele>692.9</ele>
        <time>2020-12-18T17:06:12Z</time>
      </trkpt>
      <trkpt lat="44.14551" lon="5.43059">
        <ele>694.5</ele>
        <time>2020-12-18T17:06:12Z</time>
      </trkpt>
      <trkpt lat="44.14499" lon="5.43055">
        <ele>695.8</ele>
        <time>2020-12-18T17:06:12Z</time>
      </trkpt>
      <trkpt lat="44.14389" lon="5.43068">
        <ele>700.6</ele>
        <time>2020-12-18T17:06:12Z</time>
      </trkpt>
      <trkpt lat="44.14363" lon="5.43068">
        <ele>700.2</ele>
        <time>2020-12-18T17:06:12Z</time>
      </trkpt>
      <trkpt lat="44.14337" lon="5.4307">
        <ele>700.1</ele>
        <time>2020-12-18T17:06:12Z</time>
      </trkpt>
      <trkpt lat="44.14294" lon="5.43042">
        <ele>699.4</ele>
        <time>2020-12-18T17:06:12Z</time>
      </trkpt>
      <trkpt lat="44.14268" lon="5.43035">
        <ele>700.6</ele>
        <time>2020-12-18T17:06:12Z</time>
      </trkpt>
      <trkpt lat="44.14201" lon="5.4302">
        <ele>710</ele>
        <time>2020-12-18T17:06:12Z</time>
      </trkpt>
      <trkpt lat="44.14175" lon="5.43027">
        <ele>713</ele>
        <time>2020-12-18T17:06:12Z</time>
      </trkpt>
      <trkpt lat="44.14149" lon="5.43042">
        <ele>716.1</ele>
        <time>2020-12-18T17:06:12Z</time>
      </trkpt>
      <trkpt lat="44.14121" lon="5.4306">
        <ele>720</ele>
        <time>2020-12-18T17:06:12Z</time>
      </trkpt>
      <trkpt lat="44.14069" lon="5.43076">
        <ele>727.6</ele>
        <time>2020-12-18T17:06:12Z</time>
      </trkpt>
      <trkpt lat="44.14084" lon="5.4304">
        <ele>731.3</ele>
        <time>2020-12-18T17:06:12Z</time>
      </trkpt>
      <trkpt lat="44.14112" lon="5.42993">
        <ele>734.9</ele>
        <time>2020-12-18T17:06:12Z</time>
      </trkpt>
      <trkpt lat="44.1412" lon="5.42956">
        <ele>738.4</ele>
        <time>2020-12-18T17:06:12Z</time>
      </trkpt>
      <trkpt lat="44.14147" lon="5.42881">
        <ele>743.9</ele>
        <time>2020-12-18T17:06:12Z</time>
      </trkpt>
      <trkpt lat="44.14118" lon="5.42832">
        <ele>750.4</ele>
        <time>2020-12-18T17:06:12Z</time>
      </trkpt>
      <trkpt lat="44.14074" lon="5.42787">
        <ele>752.1</ele>
        <time>2020-12-18T17:06:12Z</time>
      </trkpt>
      <trkpt lat="44.14057" lon="5.4275">
        <ele>751.9</ele>
        <time>2020-12-18T17:06:12Z</time>
      </trkpt>
      <trkpt lat="44.13994" lon="5.42703">
        <ele>753.7</ele>
        <time>2020-12-18T17:06:12Z</time>
      </trkpt>
      <trkpt lat="44.13967" lon="5.42684">
        <ele>756.2</ele>
        <time>2020-12-18T17:06:12Z</time>
      </trkpt>
      <trkpt lat="44.13963" lon="5.42647">
        <ele>755.4</ele>
        <time>2020-12-18T17:06:12Z</time>
      </trkpt>
      <trkpt lat="44.13937" lon="5.42606">
        <ele>755.8</ele>
        <time>2020-12-18T17:06:12Z</time>
      </trkpt>
      <trkpt lat="44.1391" lon="5.42606">
        <ele>756.6</ele>
        <time>2020-12-18T17:06:12Z</time>
      </trkpt>
      <trkpt lat="44.13884" lon="5.42611">
        <ele>757.5</ele>
        <time>2020-12-18T17:06:12Z</time>
      </trkpt>
      <trkpt lat="44.13864" lon="5.42604">
        <ele>759.7</ele>
        <time>2020-12-18T17:06:12Z</time>
      </trkpt>
      <trkpt lat="44.1384" lon="5.42547">
        <ele>763.3</ele>
        <time>2020-12-18T17:06:12Z</time>
      </trkpt>
      <trkpt lat="44.13826" lon="5.42506">
        <ele>766.3</ele>
        <time>2020-12-18T17:06:12Z</time>
      </trkpt>
      <trkpt lat="44.13809" lon="5.42467">
        <ele>769.5</ele>
        <time>2020-12-18T17:06:12Z</time>
      </trkpt>
      <trkpt lat="44.13783" lon="5.42452">
        <ele>770.4</ele>
        <time>2020-12-18T17:06:12Z</time>
      </trkpt>
      <trkpt lat="44.13742" lon="5.42441">
        <ele>772.7</ele>
        <time>2020-12-18T17:06:12Z</time>
      </trkpt>
      <trkpt lat="44.1368" lon="5.42473">
        <ele>774.5</ele>
        <time>2020-12-18T17:06:12Z</time>
      </trkpt>
      <trkpt lat="44.13628" lon="5.42485">
        <ele>778.7</ele>
        <time>2020-12-18T17:06:12Z</time>
      </trkpt>
      <trkpt lat="44.13583" lon="5.42515">
        <ele>780.4</ele>
        <time>2020-12-18T17:06:12Z</time>
      </trkpt>
      <trkpt lat="44.13562" lon="5.42551">
        <ele>779.8</ele>
        <time>2020-12-18T17:06:12Z</time>
      </trkpt>
      <trkpt lat="44.13505" lon="5.42593">
        <ele>779.8</ele>
        <time>2020-12-18T17:06:12Z</time>
      </trkpt>
      <trkpt lat="44.13479" lon="5.42604">
        <ele>781</ele>
        <time>2020-12-18T17:06:12Z</time>
      </trkpt>
      <trkpt lat="44.13401" lon="5.42613">
        <ele>780.2</ele>
        <time>2020-12-18T17:06:12Z</time>
      </trkpt>
      <trkpt lat="44.13365" lon="5.42643">
        <ele>782.3</ele>
        <time>2020-12-18T17:06:12Z</time>
      </trkpt>
      <trkpt lat="44.13342" lon="5.42679">
        <ele>780.5</ele>
        <time>2020-12-18T17:06:12Z</time>
      </trkpt>
      <trkpt lat="44.13325" lon="5.42724">
        <ele>778.3</ele>
        <time>2020-12-18T17:06:12Z</time>
      </trkpt>
      <trkpt lat="44.13299" lon="5.42746">
        <ele>780</ele>
        <time>2020-12-18T17:06:12Z</time>
      </trkpt>
      <trkpt lat="44.13255" lon="5.42761">
        <ele>779.4</ele>
        <time>2020-12-18T17:06:12Z</time>
      </trkpt>
      <trkpt lat="44.13222" lon="5.42771">
        <ele>777.8</ele>
        <time>2020-12-18T17:06:12Z</time>
      </trkpt>
      <trkpt lat="44.13187" lon="5.42768">
        <ele>773.9</ele>
        <time>2020-12-18T17:06:12Z</time>
      </trkpt>
      <trkpt lat="44.13165" lon="5.42742">
        <ele>769.9</ele>
        <time>2020-12-18T17:06:12Z</time>
      </trkpt>
      <trkpt lat="44.13118" lon="5.42726">
        <ele>769.3</ele>
        <time>2020-12-18T17:06:12Z</time>
      </trkpt>
      <trkpt lat="44.13089" lon="5.42721">
        <ele>771</ele>
        <time>2020-12-18T17:06:12Z</time>
      </trkpt>
      <trkpt lat="44.13061" lon="5.42703">
        <ele>771.5</ele>
        <time>2020-12-18T17:06:12Z</time>
      </trkpt>
      <trkpt lat="44.13019" lon="5.42681">
        <ele>775.4</ele>
        <time>2020-12-18T17:06:12Z</time>
      </trkpt>
      <trkpt lat="44.12991" lon="5.42661">
        <ele>776</ele>
        <time>2020-12-18T17:06:12Z</time>
      </trkpt>
      <trkpt lat="44.12962" lon="5.42649">
        <ele>778.3</ele>
        <time>2020-12-18T17:06:12Z</time>
      </trkpt>
      <trkpt lat="44.12925" lon="5.42673">
        <ele>782.9</ele>
        <time>2020-12-18T17:06:12Z</time>
      </trkpt>
      <trkpt lat="44.12912" lon="5.42703">
        <ele>780.9</ele>
        <time>2020-12-18T17:06:12Z</time>
      </trkpt>
      <trkpt lat="44.12894" lon="5.42634">
        <ele>770.6</ele>
        <time>2020-12-18T17:06:12Z</time>
      </trkpt>
      <trkpt lat="44.12908" lon="5.42588">
        <ele>760.3</ele>
        <time>2020-12-18T17:06:12Z</time>
      </trkpt>
      <trkpt lat="44.12886" lon="5.42571">
        <ele>754.5</ele>
        <time>2020-12-18T17:06:12Z</time>
      </trkpt>
      <trkpt lat="44.12844" lon="5.42599">
        <ele>756.9</ele>
        <time>2020-12-18T17:06:12Z</time>
      </trkpt>
      <trkpt lat="44.12771" lon="5.42558">
        <ele>759.3</ele>
        <time>2020-12-18T17:06:12Z</time>
      </trkpt>
      <trkpt lat="44.12686" lon="5.42542">
        <ele>755.1</ele>
        <time>2020-12-18T17:06:12Z</time>
      </trkpt>
      <trkpt lat="44.12637" lon="5.42545">
        <ele>753.6</ele>
        <time>2020-12-18T17:06:12Z</time>
      </trkpt>
      <trkpt lat="44.12594" lon="5.42529">
        <ele>754.1</ele>
        <time>2020-12-18T17:06:12Z</time>
      </trkpt>
      <trkpt lat="44.1255" lon="5.42481">
        <ele>753.7</ele>
        <time>2020-12-18T17:06:12Z</time>
      </trkpt>
      <trkpt lat="44.12523" lon="5.4245">
        <ele>752.9</ele>
        <time>2020-12-18T17:06:12Z</time>
      </trkpt>
      <trkpt lat="44.12476" lon="5.42417">
        <ele>756.4</ele>
        <time>2020-12-18T17:06:12Z</time>
      </trkpt>
      <trkpt lat="44.12438" lon="5.42386">
        <ele>759.8</ele>
        <time>2020-12-18T17:06:12Z</time>
      </trkpt>
      <trkpt lat="44.12401" lon="5.42366">
        <ele>762.9</ele>
        <time>2020-12-18T17:06:12Z</time>
      </trkpt>
      <trkpt lat="44.12355" lon="5.42334">
        <ele>766.9</ele>
        <time>2020-12-18T17:06:12Z</time>
      </trkpt>
      <trkpt lat="44.12317" lon="5.42294">
        <ele>768.9</ele>
        <time>2020-12-18T17:06:12Z</time>
      </trkpt>
      <trkpt lat="44.12279" lon="5.42267">
        <ele>766.5</ele>
        <time>2020-12-18T17:06:12Z</time>
      </trkpt>
      <trkpt lat="44.12185" lon="5.42254">
        <ele>758.8</ele>
        <time>2020-12-18T17:06:12Z</time>
      </trkpt>
      <trkpt lat="44.1209" lon="5.42236">
        <ele>752.2</ele>
        <time>2020-12-18T17:06:12Z</time>
      </trkpt>
      <trkpt lat="44.12017" lon="5.42213">
        <ele>748.6</ele>
        <time>2020-12-18T17:06:12Z</time>
      </trkpt>
      <trkpt lat="44.11949" lon="5.42199">
        <ele>748.6</ele>
        <time>2020-12-18T17:06:12Z</time>
      </trkpt>
      <trkpt lat="44.11909" lon="5.42177">
        <ele>749.6</ele>
        <time>2020-12-18T17:06:12Z</time>
      </trkpt>
      <trkpt lat="44.11863" lon="5.42128">
        <ele>747.6</ele>
        <time>2020-12-18T17:06:12Z</time>
      </trkpt>
      <trkpt lat="44.1181" lon="5.42073">
        <ele>747.4</ele>
        <time>2020-12-18T17:06:12Z</time>
      </trkpt>
      <trkpt lat="44.11778" lon="5.42042">
        <ele>748.4</ele>
        <time>2020-12-18T17:06:12Z</time>
      </trkpt>
      <trkpt lat="44.11741" lon="5.42002">
        <ele>745.7</ele>
        <time>2020-12-18T17:06:12Z</time>
      </trkpt>
      <trkpt lat="44.11711" lon="5.41972">
        <ele>745</ele>
        <time>2020-12-18T17:06:12Z</time>
      </trkpt>
      <trkpt lat="44.11668" lon="5.41924">
        <ele>743.4</ele>
        <time>2020-12-18T17:06:12Z</time>
      </trkpt>
      <trkpt lat="44.1163" lon="5.41881">
        <ele>744.4</ele>
        <time>2020-12-18T17:06:12Z</time>
      </trkpt>
      <trkpt lat="44.11596" lon="5.41827">
        <ele>745.2</ele>
        <time>2020-12-18T17:06:12Z</time>
      </trkpt>
      <trkpt lat="44.11552" lon="5.41774">
        <ele>744.1</ele>
        <time>2020-12-18T17:06:12Z</time>
      </trkpt>
      <trkpt lat="44.11501" lon="5.41712">
        <ele>741.4</ele>
        <time>2020-12-18T17:06:12Z</time>
      </trkpt>
      <trkpt lat="44.11443" lon="5.41658">
        <ele>742.8</ele>
        <time>2020-12-18T17:06:12Z</time>
      </trkpt>
      <trkpt lat="44.1137" lon="5.41583">
        <ele>738.5</ele>
        <time>2020-12-18T17:06:12Z</time>
      </trkpt>
      <trkpt lat="44.11301" lon="5.41493">
        <ele>736.5</ele>
        <time>2020-12-18T17:06:12Z</time>
      </trkpt>
      <trkpt lat="44.11253" lon="5.41446">
        <ele>733.1</ele>
        <time>2020-12-18T17:06:12Z</time>
      </trkpt>
      <trkpt lat="44.11114" lon="5.41361">
        <ele>725</ele>
        <time>2020-12-18T17:06:12Z</time>
      </trkpt>
      <trkpt lat="44.1103" lon="5.41309">
        <ele>720.5</ele>
        <time>2020-12-18T17:06:12Z</time>
      </trkpt>
      <trkpt lat="44.10938" lon="5.41273">
        <ele>717.3</ele>
        <time>2020-12-18T17:06:12Z</time>
      </trkpt>
      <trkpt lat="44.10855" lon="5.41237">
        <ele>715.1</ele>
        <time>2020-12-18T17:06:12Z</time>
      </trkpt>
      <trkpt lat="44.10779" lon="5.41167">
        <ele>711.9</ele>
        <time>2020-12-18T17:06:12Z</time>
      </trkpt>
      <trkpt lat="44.10708" lon="5.41135">
        <ele>712.3</ele>
        <time>2020-12-18T17:06:12Z</time>
      </trkpt>
      <trkpt lat="44.10571" lon="5.41068">
        <ele>710.4</ele>
        <time>2020-12-18T17:06:12Z</time>
      </trkpt>
      <trkpt lat="44.10443" lon="5.41002">
        <ele>707.4</ele>
        <time>2020-12-18T17:06:12Z</time>
      </trkpt>
      <trkpt lat="44.10374" lon="5.40971">
        <ele>705.4</ele>
        <time>2020-12-18T17:06:12Z</time>
      </trkpt>
      <trkpt lat="44.10309" lon="5.40945">
        <ele>703.8</ele>
        <time>2020-12-18T17:06:12Z</time>
      </trkpt>
      <trkpt lat="44.10243" lon="5.40918">
        <ele>703.4</ele>
        <time>2020-12-18T17:06:12Z</time>
      </trkpt>
      <trkpt lat="44.10195" lon="5.40919">
        <ele>705.4</ele>
        <time>2020-12-18T17:06:12Z</time>
      </trkpt>
      <trkpt lat="44.10133" lon="5.40941">
        <ele>709</ele>
        <time>2020-12-18T17:06:12Z</time>
      </trkpt>
      <trkpt lat="44.10053" lon="5.40938">
        <ele>711.9</ele>
        <time>2020-12-18T17:06:12Z</time>
      </trkpt>
      <trkpt lat="44.09968" lon="5.40918">
        <ele>715.5</ele>
        <time>2020-12-18T17:06:12Z</time>
      </trkpt>
      <trkpt lat="44.09904" lon="5.40832">
        <ele>707.6</ele>
        <time>2020-12-18T17:06:12Z</time>
      </trkpt>
      <trkpt lat="44.09836" lon="5.40755">
        <ele>701.6</ele>
        <time>2020-12-18T17:06:12Z</time>
      </trkpt>
      <trkpt lat="44.09725" lon="5.40645">
        <ele>694.8</ele>
        <time>2020-12-18T17:06:12Z</time>
      </trkpt>
      <trkpt lat="44.0972" lon="5.40584">
        <ele>693.9</ele>
        <time>2020-12-18T17:06:12Z</time>
      </trkpt>
      <trkpt lat="44.09834" lon="5.40419">
        <ele>704.8</ele>
        <time>2020-12-18T17:06:12Z</time>
      </trkpt>
      <trkpt lat="44.09934" lon="5.40263">
        <ele>712.3</ele>
        <time>2020-12-18T17:06:12Z</time>
      </trkpt>
      <trkpt lat="44.09989" lon="5.40243">
        <ele>712.2</ele>
        <time>2020-12-18T17:06:12Z</time>
      </trkpt>
      <trkpt lat="44.10059" lon="5.40214">
        <ele>712.5</ele>
        <time>2020-12-18T17:06:12Z</time>
      </trkpt>
      <trkpt lat="44.10117" lon="5.40183">
        <ele>713.3</ele>
        <time>2020-12-18T17:06:12Z</time>
      </trkpt>
      <trkpt lat="44.10245" lon="5.40113">
        <ele>713.3</ele>
        <time>2020-12-18T17:06:12Z</time>
      </trkpt>
      <trkpt lat="44.10349" lon="5.40051">
        <ele>716.7</ele>
        <time>2020-12-18T17:06:12Z</time>
      </trkpt>
      <trkpt lat="44.10413" lon="5.39968">
        <ele>718.5</ele>
        <time>2020-12-18T17:06:12Z</time>
      </trkpt>
      <trkpt lat="44.10446" lon="5.39937">
        <ele>718.5</ele>
        <time>2020-12-18T17:06:12Z</time>
      </trkpt>
      <trkpt lat="44.10514" lon="5.39917">
        <ele>719.5</ele>
        <time>2020-12-18T17:06:12Z</time>
      </trkpt>
      <trkpt lat="44.10615" lon="5.39978">
        <ele>723.1</ele>
        <time>2020-12-18T17:06:12Z</time>
      </trkpt>
      <trkpt lat="44.10691" lon="5.40036">
        <ele>729.3</ele>
        <time>2020-12-18T17:06:12Z</time>
      </trkpt>
      <trkpt lat="44.10743" lon="5.40058">
        <ele>732.5</ele>
        <time>2020-12-18T17:06:12Z</time>
      </trkpt>
      <trkpt lat="44.10802" lon="5.40085">
        <ele>735.6</ele>
        <time>2020-12-18T17:06:12Z</time>
      </trkpt>
      <trkpt lat="44.10847" lon="5.40031">
        <ele>738.9</ele>
        <time>2020-12-18T17:06:12Z</time>
      </trkpt>
      <trkpt lat="44.10902" lon="5.39951">
        <ele>743.2</ele>
        <time>2020-12-18T17:06:12Z</time>
      </trkpt>
      <trkpt lat="44.11003" lon="5.39883">
        <ele>750.3</ele>
        <time>2020-12-18T17:06:12Z</time>
      </trkpt>
      <trkpt lat="44.1112" lon="5.39797">
        <ele>759</ele>
        <time>2020-12-18T17:06:12Z</time>
      </trkpt>
      <trkpt lat="44.11193" lon="5.39751">
        <ele>763.9</ele>
        <time>2020-12-18T17:06:12Z</time>
      </trkpt>
      <trkpt lat="44.11334" lon="5.39727">
        <ele>773.6</ele>
        <time>2020-12-18T17:06:12Z</time>
      </trkpt>
      <trkpt lat="44.1142" lon="5.39718">
        <ele>777.8</ele>
        <time>2020-12-18T17:06:12Z</time>
      </trkpt>
      <trkpt lat="44.11447" lon="5.39681">
        <ele>781.5</ele>
        <time>2020-12-18T17:06:12Z</time>
      </trkpt>
      <trkpt lat="44.11391" lon="5.39532">
        <ele>787.9</ele>
        <time>2020-12-18T17:06:12Z</time>
      </trkpt>
      <trkpt lat="44.11346" lon="5.3947">
        <ele>792.6</ele>
        <time>2020-12-18T17:06:12Z</time>
      </trkpt>
      <trkpt lat="44.11258" lon="5.39416">
        <ele>797.8</ele>
        <time>2020-12-18T17:06:12Z</time>
      </trkpt>
      <trkpt lat="44.11183" lon="5.39372">
        <ele>800.9</ele>
        <time>2020-12-18T17:06:12Z</time>
      </trkpt>
      <trkpt lat="44.11218" lon="5.3927">
        <ele>806.6</ele>
        <time>2020-12-18T17:06:12Z</time>
      </trkpt>
      <trkpt lat="44.11165" lon="5.3924">
        <ele>810.1</ele>
        <time>2020-12-18T17:06:12Z</time>
      </trkpt>
      <trkpt lat="44.11053" lon="5.39179">
        <ele>817.6</ele>
        <time>2020-12-18T17:06:12Z</time>
      </trkpt>
      <trkpt lat="44.10974" lon="5.39086">
        <ele>824.7</ele>
        <time>2020-12-18T17:06:12Z</time>
      </trkpt>
      <trkpt lat="44.10983" lon="5.38985">
        <ele>827.8</ele>
        <time>2020-12-18T17:06:12Z</time>
      </trkpt>
      <trkpt lat="44.11032" lon="5.38909">
        <ele>830.9</ele>
        <time>2020-12-18T17:06:12Z</time>
      </trkpt>
      <trkpt lat="44.11089" lon="5.38873">
        <ele>833.1</ele>
        <time>2020-12-18T17:06:12Z</time>
      </trkpt>
      <trkpt lat="44.11264" lon="5.38878">
        <ele>840.6</ele>
        <time>2020-12-18T17:06:12Z</time>
      </trkpt>
      <trkpt lat="44.11328" lon="5.38938">
        <ele>842.8</ele>
        <time>2020-12-18T17:06:12Z</time>
      </trkpt>
      <trkpt lat="44.11359" lon="5.38934">
        <ele>844.5</ele>
        <time>2020-12-18T17:06:12Z</time>
      </trkpt>
      <trkpt lat="44.11433" lon="5.38883">
        <ele>846.9</ele>
        <time>2020-12-18T17:06:12Z</time>
      </trkpt>
      <trkpt lat="44.11504" lon="5.38902">
        <ele>849.1</ele>
        <time>2020-12-18T17:06:12Z</time>
      </trkpt>
      <trkpt lat="44.11535" lon="5.38863">
        <ele>850.5</ele>
        <time>2020-12-18T17:06:12Z</time>
      </trkpt>
      <trkpt lat="44.11573" lon="5.38786">
        <ele>852.9</ele>
        <time>2020-12-18T17:06:12Z</time>
      </trkpt>
      <trkpt lat="44.1163" lon="5.38734">
        <ele>856.6</ele>
        <time>2020-12-18T17:06:12Z</time>
      </trkpt>
      <trkpt lat="44.11766" lon="5.38637">
        <ele>866.7</ele>
        <time>2020-12-18T17:06:12Z</time>
      </trkpt>
      <trkpt lat="44.11773" lon="5.38603">
        <ele>868.3</ele>
        <time>2020-12-18T17:06:12Z</time>
      </trkpt>
      <trkpt lat="44.11726" lon="5.38522">
        <ele>872.7</ele>
        <time>2020-12-18T17:06:12Z</time>
      </trkpt>
      <trkpt lat="44.11715" lon="5.38456">
        <ele>875.8</ele>
        <time>2020-12-18T17:06:12Z</time>
      </trkpt>
      <trkpt lat="44.1173" lon="5.38395">
        <ele>878</ele>
        <time>2020-12-18T17:06:12Z</time>
      </trkpt>
      <trkpt lat="44.11818" lon="5.38306">
        <ele>885.4</ele>
        <time>2020-12-18T17:06:12Z</time>
      </trkpt>
      <trkpt lat="44.11886" lon="5.38235">
        <ele>890.2</ele>
        <time>2020-12-18T17:06:12Z</time>
      </trkpt>
      <trkpt lat="44.11902" lon="5.38181">
        <ele>892.4</ele>
        <time>2020-12-18T17:06:12Z</time>
      </trkpt>
      <trkpt lat="44.11913" lon="5.3813">
        <ele>894.4</ele>
        <time>2020-12-18T17:06:12Z</time>
      </trkpt>
      <trkpt lat="44.12008" lon="5.37981">
        <ele>903.4</ele>
        <time>2020-12-18T17:06:12Z</time>
      </trkpt>
      <trkpt lat="44.12111" lon="5.37855">
        <ele>911.9</ele>
        <time>2020-12-18T17:06:12Z</time>
      </trkpt>
      <trkpt lat="44.12145" lon="5.37721">
        <ele>917</ele>
        <time>2020-12-18T17:06:12Z</time>
      </trkpt>
      <trkpt lat="44.12186" lon="5.37601">
        <ele>923.4</ele>
        <time>2020-12-18T17:06:12Z</time>
      </trkpt>
      <trkpt lat="44.12324" lon="5.37408">
        <ele>934.3</ele>
        <time>2020-12-18T17:06:12Z</time>
      </trkpt>
      <trkpt lat="44.12406" lon="5.37337">
        <ele>941.2</ele>
        <time>2020-12-18T17:06:12Z</time>
      </trkpt>
      <trkpt lat="44.12459" lon="5.3731">
        <ele>944.1</ele>
        <time>2020-12-18T17:06:12Z</time>
      </trkpt>
      <trkpt lat="44.12515" lon="5.37303">
        <ele>947.5</ele>
        <time>2020-12-18T17:06:12Z</time>
      </trkpt>
      <trkpt lat="44.12575" lon="5.37304">
        <ele>952.1</ele>
        <time>2020-12-18T17:06:12Z</time>
      </trkpt>
      <trkpt lat="44.12666" lon="5.37306">
        <ele>957</ele>
        <time>2020-12-18T17:06:12Z</time>
      </trkpt>
      <trkpt lat="44.12742" lon="5.37329">
        <ele>962</ele>
        <time>2020-12-18T17:06:12Z</time>
      </trkpt>
      <trkpt lat="44.12817" lon="5.37351">
        <ele>966.5</ele>
        <time>2020-12-18T17:06:12Z</time>
      </trkpt>
      <trkpt lat="44.12917" lon="5.3735">
        <ele>973</ele>
        <time>2020-12-18T17:06:12Z</time>
      </trkpt>
      <trkpt lat="44.13026" lon="5.37313">
        <ele>978.9</ele>
        <time>2020-12-18T17:06:12Z</time>
      </trkpt>
      <trkpt lat="44.13127" lon="5.37338">
        <ele>985.1</ele>
        <time>2020-12-18T17:06:12Z</time>
      </trkpt>
      <trkpt lat="44.13188" lon="5.37373">
        <ele>989.9</ele>
        <time>2020-12-18T17:06:12Z</time>
      </trkpt>
      <trkpt lat="44.13259" lon="5.37409">
        <ele>994.2</ele>
        <time>2020-12-18T17:06:12Z</time>
      </trkpt>
      <trkpt lat="44.1333" lon="5.37437">
        <ele>998.1</ele>
        <time>2020-12-18T17:06:12Z</time>
      </trkpt>
      <trkpt lat="44.13395" lon="5.37452">
        <ele>1002.8</ele>
        <time>2020-12-18T17:06:12Z</time>
      </trkpt>
      <trkpt lat="44.13469" lon="5.37433">
        <ele>1007.5</ele>
        <time>2020-12-18T17:06:12Z</time>
      </trkpt>
      <trkpt lat="44.13548" lon="5.3741">
        <ele>1012.2</ele>
        <time>2020-12-18T17:06:12Z</time>
      </trkpt>
      <trkpt lat="44.13638" lon="5.37396">
        <ele>1019.5</ele>
        <time>2020-12-18T17:06:12Z</time>
      </trkpt>
      <trkpt lat="44.13644" lon="5.37354">
        <ele>1021.1</ele>
        <time>2020-12-18T17:06:12Z</time>
      </trkpt>
      <trkpt lat="44.13577" lon="5.3731">
        <ele>1026.7</ele>
        <time>2020-12-18T17:06:12Z</time>
      </trkpt>
      <trkpt lat="44.13498" lon="5.3722">
        <ele>1032.9</ele>
        <time>2020-12-18T17:06:12Z</time>
      </trkpt>
      <trkpt lat="44.13435" lon="5.37133">
        <ele>1036.3</ele>
        <time>2020-12-18T17:06:12Z</time>
      </trkpt>
      <trkpt lat="44.13436" lon="5.37092">
        <ele>1038</ele>
        <time>2020-12-18T17:06:12Z</time>
      </trkpt>
      <trkpt lat="44.13614" lon="5.36959">
        <ele>1050.3</ele>
        <time>2020-12-18T17:06:12Z</time>
      </trkpt>
      <trkpt lat="44.13721" lon="5.36926">
        <ele>1057.6</ele>
        <time>2020-12-18T17:06:12Z</time>
      </trkpt>
      <trkpt lat="44.13756" lon="5.36905">
        <ele>1060.1</ele>
        <time>2020-12-18T17:06:12Z</time>
      </trkpt>
      <trkpt lat="44.13809" lon="5.36843">
        <ele>1064.2</ele>
        <time>2020-12-18T17:06:12Z</time>
      </trkpt>
      <trkpt lat="44.13871" lon="5.36796">
        <ele>1069.3</ele>
        <time>2020-12-18T17:06:12Z</time>
      </trkpt>
      <trkpt lat="44.13909" lon="5.36785">
        <ele>1072.5</ele>
        <time>2020-12-18T17:06:12Z</time>
      </trkpt>
      <trkpt lat="44.13985" lon="5.36791">
        <ele>1078.1</ele>
        <time>2020-12-18T17:06:12Z</time>
      </trkpt>
      <trkpt lat="44.14082" lon="5.36833">
        <ele>1085</ele>
        <time>2020-12-18T17:06:12Z</time>
      </trkpt>
      <trkpt lat="44.14144" lon="5.36914">
        <ele>1092</ele>
        <time>2020-12-18T17:06:12Z</time>
      </trkpt>
      <trkpt lat="44.14185" lon="5.36993">
        <ele>1096.2</ele>
        <time>2020-12-18T17:06:12Z</time>
      </trkpt>
      <trkpt lat="44.142" lon="5.3706">
        <ele>1098.1</ele>
        <time>2020-12-18T17:06:12Z</time>
      </trkpt>
      <trkpt lat="44.14239" lon="5.37054">
        <ele>1099.9</ele>
        <time>2020-12-18T17:06:12Z</time>
      </trkpt>
      <trkpt lat="44.14261" lon="5.37001">
        <ele>1103.3</ele>
        <time>2020-12-18T17:06:12Z</time>
      </trkpt>
      <trkpt lat="44.14279" lon="5.36812">
        <ele>1110.3</ele>
        <time>2020-12-18T17:06:12Z</time>
      </trkpt>
      <trkpt lat="44.14323" lon="5.36733">
        <ele>1114.2</ele>
        <time>2020-12-18T17:06:12Z</time>
      </trkpt>
      <trkpt lat="44.14413" lon="5.3666">
        <ele>1118.3</ele>
        <time>2020-12-18T17:06:12Z</time>
      </trkpt>
      <trkpt lat="44.14517" lon="5.36657">
        <ele>1125.6</ele>
        <time>2020-12-18T17:06:12Z</time>
      </trkpt>
      <trkpt lat="44.14583" lon="5.36654">
        <ele>1131.5</ele>
        <time>2020-12-18T17:06:12Z</time>
      </trkpt>
      <trkpt lat="44.14579" lon="5.36619">
        <ele>1131.6</ele>
        <time>2020-12-18T17:06:12Z</time>
      </trkpt>
      <trkpt lat="44.14509" lon="5.36477">
        <ele>1135.4</ele>
        <time>2020-12-18T17:06:12Z</time>
      </trkpt>
      <trkpt lat="44.14505" lon="5.36417">
        <ele>1137.7</ele>
        <time>2020-12-18T17:06:12Z</time>
      </trkpt>
      <trkpt lat="44.14588" lon="5.36316">
        <ele>1143.7</ele>
        <time>2020-12-18T17:06:12Z</time>
      </trkpt>
      <trkpt lat="44.14602" lon="5.36277">
        <ele>1145.6</ele>
        <time>2020-12-18T17:06:12Z</time>
      </trkpt>
      <trkpt lat="44.146" lon="5.3612">
        <ele>1151.2</ele>
        <time>2020-12-18T17:06:12Z</time>
      </trkpt>
      <trkpt lat="44.14636" lon="5.35993">
        <ele>1156.8</ele>
        <time>2020-12-18T17:06:12Z</time>
      </trkpt>
      <trkpt lat="44.1469" lon="5.35933">
        <ele>1160.2</ele>
        <time>2020-12-18T17:06:12Z</time>
      </trkpt>
      <trkpt lat="44.14755" lon="5.35911">
        <ele>1164</ele>
        <time>2020-12-18T17:06:12Z</time>
      </trkpt>
      <trkpt lat="44.14942" lon="5.35969">
        <ele>1179.1</ele>
        <time>2020-12-18T17:06:12Z</time>
      </trkpt>
      <trkpt lat="44.1495" lon="5.35934">
        <ele>1181.9</ele>
        <time>2020-12-18T17:06:12Z</time>
      </trkpt>
      <trkpt lat="44.14895" lon="5.35873">
        <ele>1183.3</ele>
        <time>2020-12-18T17:06:12Z</time>
      </trkpt>
      <trkpt lat="44.14867" lon="5.35738">
        <ele>1190.8</ele>
        <time>2020-12-18T17:06:12Z</time>
      </trkpt>
      <trkpt lat="44.14888" lon="5.35627">
        <ele>1196.4</ele>
        <time>2020-12-18T17:06:12Z</time>
      </trkpt>
      <trkpt lat="44.14982" lon="5.35514">
        <ele>1205.9</ele>
        <time>2020-12-18T17:06:12Z</time>
      </trkpt>
      <trkpt lat="44.15058" lon="5.35507">
        <ele>1211.6</ele>
        <time>2020-12-18T17:06:12Z</time>
      </trkpt>
      <trkpt lat="44.15104" lon="5.35565">
        <ele>1217.1</ele>
        <time>2020-12-18T17:06:12Z</time>
      </trkpt>
      <trkpt lat="44.15148" lon="5.35494">
        <ele>1220</ele>
        <time>2020-12-18T17:06:12Z</time>
      </trkpt>
      <trkpt lat="44.15221" lon="5.35439">
        <ele>1227.1</ele>
        <time>2020-12-18T17:06:12Z</time>
      </trkpt>
      <trkpt lat="44.15231" lon="5.35318">
        <ele>1233.3</ele>
        <time>2020-12-18T17:06:12Z</time>
      </trkpt>
      <trkpt lat="44.15277" lon="5.35198">
        <ele>1241</ele>
        <time>2020-12-18T17:06:12Z</time>
      </trkpt>
      <trkpt lat="44.15283" lon="5.35068">
        <ele>1246.2</ele>
        <time>2020-12-18T17:06:12Z</time>
      </trkpt>
      <trkpt lat="44.15324" lon="5.35013">
        <ele>1250.9</ele>
        <time>2020-12-18T17:06:12Z</time>
      </trkpt>
      <trkpt lat="44.15382" lon="5.34997">
        <ele>1254.9</ele>
        <time>2020-12-18T17:06:12Z</time>
      </trkpt>
      <trkpt lat="44.15455" lon="5.35001">
        <ele>1258.2</ele>
        <time>2020-12-18T17:06:12Z</time>
      </trkpt>
      <trkpt lat="44.15525" lon="5.34963">
        <ele>1257.7</ele>
        <time>2020-12-18T17:06:12Z</time>
      </trkpt>
      <trkpt lat="44.15595" lon="5.34936">
        <ele>1254.9</ele>
        <time>2020-12-18T17:06:12Z</time>
      </trkpt>
      <trkpt lat="44.15666" lon="5.34972">
        <ele>1257.1</ele>
        <time>2020-12-18T17:06:12Z</time>
      </trkpt>
      <trkpt lat="44.15725" lon="5.34971">
        <ele>1259.4</ele>
        <time>2020-12-18T17:06:12Z</time>
      </trkpt>
      <trkpt lat="44.15719" lon="5.34938">
        <ele>1259.8</ele>
        <time>2020-12-18T17:06:12Z</time>
      </trkpt>
      <trkpt lat="44.15686" lon="5.34864">
        <ele>1260</ele>
        <time>2020-12-18T17:06:12Z</time>
      </trkpt>
      <trkpt lat="44.1577" lon="5.3479">
        <ele>1265.3</ele>
        <time>2020-12-18T17:06:12Z</time>
      </trkpt>
      <trkpt lat="44.15761" lon="5.34757">
        <ele>1265.8</ele>
        <time>2020-12-18T17:06:12Z</time>
      </trkpt>
      <trkpt lat="44.15677" lon="5.3472">
        <ele>1268.1</ele>
        <time>2020-12-18T17:06:12Z</time>
      </trkpt>
      <trkpt lat="44.15631" lon="5.34669">
        <ele>1272</ele>
        <time>2020-12-18T17:06:12Z</time>
      </trkpt>
      <trkpt lat="44.15562" lon="5.3458">
        <ele>1275</ele>
        <time>2020-12-18T17:06:12Z</time>
      </trkpt>
      <trkpt lat="44.15494" lon="5.34447">
        <ele>1285.8</ele>
        <time>2020-12-18T17:06:12Z</time>
      </trkpt>
      <trkpt lat="44.15459" lon="5.3451">
        <ele>1284.7</ele>
        <time>2020-12-18T17:06:12Z</time>
      </trkpt>
      <trkpt lat="44.1542" lon="5.34571">
        <ele>1285.6</ele>
        <time>2020-12-18T17:06:12Z</time>
      </trkpt>
      <trkpt lat="44.15339" lon="5.34584">
        <ele>1288.9</ele>
        <time>2020-12-18T17:06:12Z</time>
      </trkpt>
      <trkpt lat="44.15276" lon="5.34573">
        <ele>1288.6</ele>
        <time>2020-12-18T17:06:12Z</time>
      </trkpt>
      <trkpt lat="44.15214" lon="5.34484">
        <ele>1293.5</ele>
        <time>2020-12-18T17:06:12Z</time>
      </trkpt>
      <trkpt lat="44.15164" lon="5.34517">
        <ele>1294.4</ele>
        <time>2020-12-18T17:06:12Z</time>
      </trkpt>
      <trkpt lat="44.15116" lon="5.34541">
        <ele>1293</ele>
        <time>2020-12-18T17:06:12Z</time>
      </trkpt>
      <trkpt lat="44.14998" lon="5.34522">
        <ele>1295.3</ele>
        <time>2020-12-18T17:06:12Z</time>
      </trkpt>
      <trkpt lat="44.14946" lon="5.34474">
        <ele>1298.9</ele>
        <time>2020-12-18T17:06:12Z</time>
      </trkpt>
      <trkpt lat="44.14893" lon="5.34502">
        <ele>1300.6</ele>
        <time>2020-12-18T17:06:12Z</time>
      </trkpt>
      <trkpt lat="44.14768" lon="5.34517">
        <ele>1304.2</ele>
        <time>2020-12-18T17:06:12Z</time>
      </trkpt>
      <trkpt lat="44.14684" lon="5.34513">
        <ele>1307.7</ele>
        <time>2020-12-18T17:06:12Z</time>
      </trkpt>
      <trkpt lat="44.14613" lon="5.34496">
        <ele>1309.5</ele>
        <time>2020-12-18T17:06:12Z</time>
      </trkpt>
      <trkpt lat="44.14576" lon="5.34464">
        <ele>1310.1</ele>
        <time>2020-12-18T17:06:12Z</time>
      </trkpt>
      <trkpt lat="44.1454" lon="5.34404">
        <ele>1313.7</ele>
        <time>2020-12-18T17:06:12Z</time>
      </trkpt>
      <trkpt lat="44.14505" lon="5.34391">
        <ele>1315.8</ele>
        <time>2020-12-18T17:06:12Z</time>
      </trkpt>
      <trkpt lat="44.14448" lon="5.3444">
        <ele>1317.1</ele>
        <time>2020-12-18T17:06:12Z</time>
      </trkpt>
      <trkpt lat="44.14367" lon="5.345">
        <ele>1320.1</ele>
        <time>2020-12-18T17:06:12Z</time>
      </trkpt>
      <trkpt lat="44.14299" lon="5.34528">
        <ele>1321.5</ele>
        <time>2020-12-18T17:06:12Z</time>
      </trkpt>
      <trkpt lat="44.14221" lon="5.34522">
        <ele>1323</ele>
        <time>2020-12-18T17:06:12Z</time>
      </trkpt>
      <trkpt lat="44.14133" lon="5.34475">
        <ele>1325.6</ele>
        <time>2020-12-18T17:06:12Z</time>
      </trkpt>
      <trkpt lat="44.14106" lon="5.34433">
        <ele>1326.5</ele>
        <time>2020-12-18T17:06:12Z</time>
      </trkpt>
      <trkpt lat="44.1414" lon="5.34377">
        <ele>1328.7</ele>
        <time>2020-12-18T17:06:12Z</time>
      </trkpt>
      <trkpt lat="44.14186" lon="5.34304">
        <ele>1331.7</ele>
        <time>2020-12-18T17:06:12Z</time>
      </trkpt>
      <trkpt lat="44.14214" lon="5.3422">
        <ele>1334.2</ele>
        <time>2020-12-18T17:06:12Z</time>
      </trkpt>
      <trkpt lat="44.14225" lon="5.34109">
        <ele>1335.5</ele>
        <time>2020-12-18T17:06:12Z</time>
      </trkpt>
      <trkpt lat="44.14274" lon="5.33993">
        <ele>1340</ele>
        <time>2020-12-18T17:06:12Z</time>
      </trkpt>
      <trkpt lat="44.14329" lon="5.33944">
        <ele>1342.5</ele>
        <time>2020-12-18T17:06:12Z</time>
      </trkpt>
      <trkpt lat="44.14424" lon="5.33934">
        <ele>1346.9</ele>
        <time>2020-12-18T17:06:12Z</time>
      </trkpt>
      <trkpt lat="44.1449" lon="5.33897">
        <ele>1348.9</ele>
        <time>2020-12-18T17:06:12Z</time>
      </trkpt>
      <trkpt lat="44.14539" lon="5.33872">
        <ele>1351</ele>
        <time>2020-12-18T17:06:12Z</time>
      </trkpt>
      <trkpt lat="44.14619" lon="5.3387">
        <ele>1356.5</ele>
        <time>2020-12-18T17:06:12Z</time>
      </trkpt>
      <trkpt lat="44.14627" lon="5.3385">
        <ele>1356.2</ele>
        <time>2020-12-18T17:06:12Z</time>
      </trkpt>
      <trkpt lat="44.14486" lon="5.33757">
        <ele>1358.9</ele>
        <time>2020-12-18T17:06:12Z</time>
      </trkpt>
      <trkpt lat="44.14466" lon="5.33712">
        <ele>1360.6</ele>
        <time>2020-12-18T17:06:12Z</time>
      </trkpt>
      <trkpt lat="44.14482" lon="5.33594">
        <ele>1364.7</ele>
        <time>2020-12-18T17:06:12Z</time>
      </trkpt>
      <trkpt lat="44.14526" lon="5.33462">
        <ele>1369</ele>
        <time>2020-12-18T17:06:12Z</time>
      </trkpt>
      <trkpt lat="44.14564" lon="5.33442">
        <ele>1370.8</ele>
        <time>2020-12-18T17:06:12Z</time>
      </trkpt>
      <trkpt lat="44.14764" lon="5.33435">
        <ele>1383</ele>
        <time>2020-12-18T17:06:12Z</time>
      </trkpt>
      <trkpt lat="44.14868" lon="5.3341">
        <ele>1388.2</ele>
        <time>2020-12-18T17:06:12Z</time>
      </trkpt>
      <trkpt lat="44.1494" lon="5.33418">
        <ele>1391.1</ele>
        <time>2020-12-18T17:06:12Z</time>
      </trkpt>
      <trkpt lat="44.14882" lon="5.333">
        <ele>1393.7</ele>
        <time>2020-12-18T17:06:12Z</time>
      </trkpt>
      <trkpt lat="44.14892" lon="5.33268">
        <ele>1394.3</ele>
        <time>2020-12-18T17:06:12Z</time>
      </trkpt>
      <trkpt lat="44.14944" lon="5.33242">
        <ele>1396.1</ele>
        <time>2020-12-18T17:06:12Z</time>
      </trkpt>
      <trkpt lat="44.1491" lon="5.33101">
        <ele>1396.8</ele>
        <time>2020-12-18T17:06:12Z</time>
      </trkpt>
      <trkpt lat="44.14885" lon="5.32981">
        <ele>1396.4</ele>
        <time>2020-12-18T17:06:12Z</time>
      </trkpt>
      <trkpt lat="44.14897" lon="5.32844">
        <ele>1398</ele>
        <time>2020-12-18T17:06:12Z</time>
      </trkpt>
      <trkpt lat="44.14878" lon="5.32746">
        <ele>1397.2</ele>
        <time>2020-12-18T17:06:12Z</time>
      </trkpt>
      <trkpt lat="44.14872" lon="5.32711">
        <ele>1397.5</ele>
        <time>2020-12-18T17:06:12Z</time>
      </trkpt>
      <trkpt lat="44.14885" lon="5.32679">
        <ele>1399</ele>
        <time>2020-12-18T17:06:12Z</time>
      </trkpt>
      <trkpt lat="44.14957" lon="5.32701">
        <ele>1400.2</ele>
        <time>2020-12-18T17:06:12Z</time>
      </trkpt>
      <trkpt lat="44.15119" lon="5.32774">
        <ele>1401.7</ele>
        <time>2020-12-18T17:06:12Z</time>
      </trkpt>
      <trkpt lat="44.15325" lon="5.32784">
        <ele>1405.2</ele>
        <time>2020-12-18T17:06:12Z</time>
      </trkpt>
      <trkpt lat="44.15327" lon="5.3276">
        <ele>1405.3</ele>
        <time>2020-12-18T17:06:12Z</time>
      </trkpt>
      <trkpt lat="44.15186" lon="5.32679">
        <ele>1404.1</ele>
        <time>2020-12-18T17:06:12Z</time>
      </trkpt>
      <trkpt lat="44.15127" lon="5.32585">
        <ele>1409.1</ele>
        <time>2020-12-18T17:06:12Z</time>
      </trkpt>
      <trkpt lat="44.15019" lon="5.32455">
        <ele>1410.3</ele>
        <time>2020-12-18T17:06:12Z</time>
      </trkpt>
      <trkpt lat="44.14864" lon="5.32346">
        <ele>1409.2</ele>
        <time>2020-12-18T17:06:12Z</time>
      </trkpt>
      <trkpt lat="44.1484" lon="5.32308">
        <ele>1410.5</ele>
        <time>2020-12-18T17:06:12Z</time>
      </trkpt>
      <trkpt lat="44.14829" lon="5.32247">
        <ele>1411.5</ele>
        <time>2020-12-18T17:06:12Z</time>
      </trkpt>
      <trkpt lat="44.14838" lon="5.32198">
        <ele>1411.7</ele>
        <time>2020-12-18T17:06:12Z</time>
      </trkpt>
      <trkpt lat="44.14881" lon="5.32092">
        <ele>1413</ele>
        <time>2020-12-18T17:06:12Z</time>
      </trkpt>
      <trkpt lat="44.14896" lon="5.32016">
        <ele>1414</ele>
        <time>2020-12-18T17:06:12Z</time>
      </trkpt>
      <trkpt lat="44.14898" lon="5.31887">
        <ele>1415.2</ele>
        <time>2020-12-18T17:06:12Z</time>
      </trkpt>
      <trkpt lat="44.14923" lon="5.31773">
        <ele>1415.1</ele>
        <time>2020-12-18T17:06:12Z</time>
      </trkpt>
      <trkpt lat="44.14987" lon="5.31776">
        <ele>1415.9</ele>
        <time>2020-12-18T17:06:12Z</time>
      </trkpt>
      <trkpt lat="44.15138" lon="5.31849">
        <ele>1417.1</ele>
        <time>2020-12-18T17:06:12Z</time>
      </trkpt>
      <trkpt lat="44.15197" lon="5.3189">
        <ele>1418.2</ele>
        <time>2020-12-18T17:06:12Z</time>
      </trkpt>
      <trkpt lat="44.15221" lon="5.31859">
        <ele>1419</ele>
        <time>2020-12-18T17:06:12Z</time>
      </trkpt>
      <trkpt lat="44.15187" lon="5.31719">
        <ele>1428.2</ele>
        <time>2020-12-18T17:06:12Z</time>
      </trkpt>
      <trkpt lat="44.15122" lon="5.31509">
        <ele>1441.8</ele>
        <time>2020-12-18T17:06:12Z</time>
      </trkpt>
      <trkpt lat="44.1509" lon="5.31431">
        <ele>1446</ele>
        <time>2020-12-18T17:06:12Z</time>
      </trkpt>
      <trkpt lat="44.1516" lon="5.31353">
        <ele>1455</ele>
        <time>2020-12-18T17:06:12Z</time>
      </trkpt>
      <trkpt lat="44.1521" lon="5.31361">
        <ele>1459.6</ele>
        <time>2020-12-18T17:06:12Z</time>
      </trkpt>
      <trkpt lat="44.15261" lon="5.31385">
        <ele>1464.5</ele>
        <time>2020-12-18T17:06:12Z</time>
      </trkpt>
      <trkpt lat="44.15294" lon="5.31431">
        <ele>1469.4</ele>
        <time>2020-12-18T17:06:12Z</time>
      </trkpt>
      <trkpt lat="44.15399" lon="5.31497">
        <ele>1479.9</ele>
        <time>2020-12-18T17:06:12Z</time>
      </trkpt>
      <trkpt lat="44.15446" lon="5.31525">
        <ele>1482.5</ele>
        <time>2020-12-18T17:06:12Z</time>
      </trkpt>
      <trkpt lat="44.15497" lon="5.31546">
        <ele>1488.3</ele>
        <time>2020-12-18T17:06:12Z</time>
      </trkpt>
      <trkpt lat="44.15495" lon="5.31518">
        <ele>1487.9</ele>
        <time>2020-12-18T17:06:12Z</time>
      </trkpt>
      <trkpt lat="44.15481" lon="5.31481">
        <ele>1488.7</ele>
        <time>2020-12-18T17:06:12Z</time>
      </trkpt>
      <trkpt lat="44.15493" lon="5.31252">
        <ele>1497.8</ele>
        <time>2020-12-18T17:06:12Z</time>
      </trkpt>
      <trkpt lat="44.15522" lon="5.31227">
        <ele>1501.8</ele>
        <time>2020-12-18T17:06:12Z</time>
      </trkpt>
      <trkpt lat="44.15593" lon="5.31261">
        <ele>1507.6</ele>
        <time>2020-12-18T17:06:12Z</time>
      </trkpt>
      <trkpt lat="44.15651" lon="5.31296">
        <ele>1511.6</ele>
        <time>2020-12-18T17:06:12Z</time>
      </trkpt>
      <trkpt lat="44.15749" lon="5.31343">
        <ele>1516</ele>
        <time>2020-12-18T17:06:12Z</time>
      </trkpt>
      <trkpt lat="44.15779" lon="5.3134">
        <ele>1517.1</ele>
        <time>2020-12-18T17:06:12Z</time>
      </trkpt>
      <trkpt lat="44.15776" lon="5.31224">
        <ele>1521.2</ele>
        <time>2020-12-18T17:06:12Z</time>
      </trkpt>
      <trkpt lat="44.15749" lon="5.31139">
        <ele>1527.5</ele>
        <time>2020-12-18T17:06:12Z</time>
      </trkpt>
      <trkpt lat="44.15747" lon="5.30993">
        <ele>1536.5</ele>
        <time>2020-12-18T17:06:12Z</time>
      </trkpt>
      <trkpt lat="44.15788" lon="5.30885">
        <ele>1545.7</ele>
        <time>2020-12-18T17:06:12Z</time>
      </trkpt>
      <trkpt lat="44.15844" lon="5.30832">
        <ele>1551.3</ele>
        <time>2020-12-18T17:06:12Z</time>
      </trkpt>
      <trkpt lat="44.15913" lon="5.30812">
        <ele>1557.4</ele>
        <time>2020-12-18T17:06:12Z</time>
      </trkpt>
      <trkpt lat="44.15999" lon="5.30823">
        <ele>1563.8</ele>
        <time>2020-12-18T17:06:12Z</time>
      </trkpt>
      <trkpt lat="44.16027" lon="5.30813">
        <ele>1565.1</ele>
        <time>2020-12-18T17:06:12Z</time>
      </trkpt>
      <trkpt lat="44.16005" lon="5.30752">
        <ele>1566</ele>
        <time>2020-12-18T17:06:12Z</time>
      </trkpt>
      <trkpt lat="44.15961" lon="5.30569">
        <ele>1577</ele>
        <time>2020-12-18T17:06:12Z</time>
      </trkpt>
      <trkpt lat="44.15972" lon="5.30464">
        <ele>1584.2</ele>
        <time>2020-12-18T17:06:12Z</time>
      </trkpt>
      <trkpt lat="44.16002" lon="5.3033">
        <ele>1592.6</ele>
        <time>2020-12-18T17:06:12Z</time>
      </trkpt>
      <trkpt lat="44.16082" lon="5.30134">
        <ele>1605.2</ele>
        <time>2020-12-18T17:06:12Z</time>
      </trkpt>
      <trkpt lat="44.16121" lon="5.30103">
        <ele>1610.4</ele>
        <time>2020-12-18T17:06:12Z</time>
      </trkpt>
      <trkpt lat="44.16162" lon="5.30074">
        <ele>1614</ele>
        <time>2020-12-18T17:06:12Z</time>
      </trkpt>
      <trkpt lat="44.16199" lon="5.30097">
        <ele>1619</ele>
        <time>2020-12-18T17:06:12Z</time>
      </trkpt>
      <trkpt lat="44.16293" lon="5.30254">
        <ele>1632.9</ele>
        <time>2020-12-18T17:06:12Z</time>
      </trkpt>
      <trkpt lat="44.16392" lon="5.30193">
        <ele>1639</ele>
        <time>2020-12-18T17:06:12Z</time>
      </trkpt>
      <trkpt lat="44.16417" lon="5.3012">
        <ele>1642.3</ele>
        <time>2020-12-18T17:06:12Z</time>
      </trkpt>
      <trkpt lat="44.16441" lon="5.30045">
        <ele>1646.2</ele>
        <time>2020-12-18T17:06:12Z</time>
      </trkpt>
      <trkpt lat="44.16471" lon="5.2997">
        <ele>1652.5</ele>
        <time>2020-12-18T17:06:12Z</time>
      </trkpt>
      <trkpt lat="44.16505" lon="5.29897">
        <ele>1658.8</ele>
        <time>2020-12-18T17:06:12Z</time>
      </trkpt>
      <trkpt lat="44.16523" lon="5.2981">
        <ele>1661.5</ele>
        <time>2020-12-18T17:06:12Z</time>
      </trkpt>
      <trkpt lat="44.16543" lon="5.29731">
        <ele>1667.6</ele>
        <time>2020-12-18T17:06:12Z</time>
      </trkpt>
      <trkpt lat="44.16586" lon="5.29682">
        <ele>1674.8</ele>
        <time>2020-12-18T17:06:12Z</time>
      </trkpt>
      <trkpt lat="44.16669" lon="5.29633">
        <ele>1683.7</ele>
        <time>2020-12-18T17:06:12Z</time>
      </trkpt>
      <trkpt lat="44.16766" lon="5.29521">
        <ele>1694.1</ele>
        <time>2020-12-18T17:06:12Z</time>
      </trkpt>
      <trkpt lat="44.16745" lon="5.2943">
        <ele>1699.1</ele>
        <time>2020-12-18T17:06:12Z</time>
      </trkpt>
      <trkpt lat="44.16704" lon="5.29297">
        <ele>1709.4</ele>
        <time>2020-12-18T17:06:12Z</time>
      </trkpt>
      <trkpt lat="44.16734" lon="5.29219">
        <ele>1714.8</ele>
        <time>2020-12-18T17:06:12Z</time>
      </trkpt>
      <trkpt lat="44.16796" lon="5.29174">
        <ele>1721.5</ele>
        <time>2020-12-18T17:06:12Z</time>
      </trkpt>
      <trkpt lat="44.16937" lon="5.29117">
        <ele>1737.8</ele>
        <time>2020-12-18T17:06:12Z</time>
      </trkpt>
      <trkpt lat="44.16948" lon="5.29087">
        <ele>1739.5</ele>
        <time>2020-12-18T17:06:12Z</time>
      </trkpt>
      <trkpt lat="44.16911" lon="5.29042">
        <ele>1741.2</ele>
        <time>2020-12-18T17:06:12Z</time>
      </trkpt>
      <trkpt lat="44.16866" lon="5.28979">
        <ele>1746.9</ele>
        <time>2020-12-18T17:06:12Z</time>
      </trkpt>
      <trkpt lat="44.16859" lon="5.28903">
        <ele>1750.5</ele>
        <time>2020-12-18T17:06:12Z</time>
      </trkpt>
      <trkpt lat="44.16897" lon="5.28728">
        <ele>1763.4</ele>
        <time>2020-12-18T17:06:12Z</time>
      </trkpt>
      <trkpt lat="44.16939" lon="5.28638">
        <ele>1769.7</ele>
        <time>2020-12-18T17:06:12Z</time>
      </trkpt>
      <trkpt lat="44.17059" lon="5.28518">
        <ele>1787.9</ele>
        <time>2020-12-18T17:06:12Z</time>
      </trkpt>
      <trkpt lat="44.17094" lon="5.28463">
        <ele>1793.1</ele>
        <time>2020-12-18T17:06:12Z</time>
      </trkpt>
      <trkpt lat="44.17145" lon="5.28431">
        <ele>1799.3</ele>
        <time>2020-12-18T17:06:12Z</time>
      </trkpt>
      <trkpt lat="44.17285" lon="5.28408">
        <ele>1814.7</ele>
        <time>2020-12-18T17:06:12Z</time>
      </trkpt>
      <trkpt lat="44.17406" lon="5.28384">
        <ele>1827.9</ele>
        <time>2020-12-18T17:06:12Z</time>
      </trkpt>
      <trkpt lat="44.17425" lon="5.28365">
        <ele>1828.3</ele>
        <time>2020-12-18T17:06:12Z</time>
      </trkpt>
      <trkpt lat="44.1742" lon="5.28288">
        <ele>1837</ele>
        <time>2020-12-18T17:06:12Z</time>
      </trkpt>
      <trkpt lat="44.17411" lon="5.28215">
        <ele>1846.4</ele>
        <time>2020-12-18T17:06:12Z</time>
      </trkpt>
      <trkpt lat="44.17386" lon="5.28116">
        <ele>1851.7</ele>
        <time>2020-12-18T17:06:12Z</time>
      </trkpt>
      <trkpt lat="44.17374" lon="5.28072">
        <ele>1855.3</ele>
        <time>2020-12-18T17:06:12Z</time>
      </trkpt>
      <trkpt lat="44.17305" lon="5.2793">
        <ele>1867.8</ele>
        <time>2020-12-18T17:06:12Z</time>
      </trkpt>
      <trkpt lat="44.17294" lon="5.27877">
        <ele>1872.6</ele>
        <time>2020-12-18T17:06:12Z</time>
      </trkpt>
      <trkpt lat="44.17299" lon="5.27812">
        <ele>1876.7</ele>
        <time>2020-12-18T17:06:12Z</time>
      </trkpt>
      <trkpt lat="44.17337" lon="5.27703">
        <ele>1883.5</ele>
        <time>2020-12-18T17:06:12Z</time>
      </trkpt>
      <trkpt lat="44.17349" lon="5.27709">
        <ele>1884.9</ele>
        <time>2020-12-18T17:06:12Z</time>
      </trkpt>
      <trkpt lat="44.17345" lon="5.2774">
        <ele>1888.3</ele>
        <time>2020-12-18T17:06:12Z</time>
      </trkpt>
      <trkpt lat="44.17332" lon="5.27807">
        <ele>1889.5</ele>
        <time>2020-12-18T17:06:12Z</time>
      </trkpt>
      <trkpt lat="44.17331" lon="5.27861">
        <ele>1889.2</ele>
        <time>2020-12-18T17:06:12Z</time>
      </trkpt>
      <trkpt lat="44.17354" lon="5.27913">
        <ele>1887.8</ele>
        <time>2020-12-18T17:06:12Z</time>
      </trkpt>
      <trkpt lat="44.1741" lon="5.27958">
        <ele>1886.9</ele>
        <time>2020-12-18T17:06:12Z</time>
      </trkpt>
      <trkpt lat="44.17453" lon="5.2799">
        <ele>1884.6</ele>
        <time>2020-12-18T17:06:12Z</time>
      </trkpt>
      <trkpt lat="44.17475" lon="5.28042">
        <ele>1881.1</ele>
        <time>2020-12-18T17:06:12Z</time>
      </trkpt>
      <trkpt lat="44.17499" lon="5.28044">
        <ele>1881.9</ele>
        <time>2020-12-18T17:06:12Z</time>
      </trkpt>
      <trkpt lat="44.17514" lon="5.27982">
        <ele>1876.9</ele>
        <time>2020-12-18T17:06:12Z</time>
      </trkpt>
      <trkpt lat="44.17524" lon="5.27911">
        <ele>1872.8</ele>
        <time>2020-12-18T17:06:12Z</time>
      </trkpt>
      <trkpt lat="44.17518" lon="5.27848">
        <ele>1869.4</ele>
        <time>2020-12-18T17:06:12Z</time>
      </trkpt>
      <trkpt lat="44.17503" lon="5.27783">
        <ele>1862.3</ele>
        <time>2020-12-18T17:06:12Z</time>
      </trkpt>
      <trkpt lat="44.17477" lon="5.27746">
        <ele>1859.7</ele>
        <time>2020-12-18T17:06:12Z</time>
      </trkpt>
      <trkpt lat="44.17451" lon="5.27719">
        <ele>1856.6</ele>
        <time>2020-12-18T17:06:12Z</time>
      </trkpt>
      <trkpt lat="44.17421" lon="5.27688">
        <ele>1854.6</ele>
        <time>2020-12-18T17:06:12Z</time>
      </trkpt>
      <trkpt lat="44.17396" lon="5.27637">
        <ele>1848.7</ele>
        <time>2020-12-18T17:06:12Z</time>
      </trkpt>
      <trkpt lat="44.17381" lon="5.27602">
        <ele>1847.1</ele>
        <time>2020-12-18T17:06:12Z</time>
      </trkpt>
      <trkpt lat="44.17365" lon="5.27562">
        <ele>1842.8</ele>
        <time>2020-12-18T17:06:12Z</time>
      </trkpt>
      <trkpt lat="44.17353" lon="5.27522">
        <ele>1841.4</ele>
        <time>2020-12-18T17:06:12Z</time>
      </trkpt>
      <trkpt lat="44.17353" lon="5.27485">
        <ele>1837</ele>
        <time>2020-12-18T17:06:12Z</time>
      </trkpt>
      <trkpt lat="44.17348" lon="5.27249">
        <ele>1824.3</ele>
        <time>2020-12-18T17:06:12Z</time>
      </trkpt>
      <trkpt lat="44.17377" lon="5.27236">
        <ele>1822.1</ele>
        <time>2020-12-18T17:06:12Z</time>
      </trkpt>
      <trkpt lat="44.17385" lon="5.27273">
        <ele>1822.4</ele>
        <time>2020-12-18T17:06:12Z</time>
      </trkpt>
      <trkpt lat="44.17379" lon="5.2735">
        <ele>1820</ele>
        <time>2020-12-18T17:06:12Z</time>
      </trkpt>
      <trkpt lat="44.1738" lon="5.27451">
        <ele>1816.9</ele>
        <time>2020-12-18T17:06:12Z</time>
      </trkpt>
      <trkpt lat="44.17393" lon="5.275">
        <ele>1811.9</ele>
        <time>2020-12-18T17:06:12Z</time>
      </trkpt>
      <trkpt lat="44.17426" lon="5.27547">
        <ele>1807.7</ele>
        <time>2020-12-18T17:06:12Z</time>
      </trkpt>
      <trkpt lat="44.17469" lon="5.27598">
        <ele>1800.7</ele>
        <time>2020-12-18T17:06:12Z</time>
      </trkpt>
      <trkpt lat="44.1751" lon="5.27616">
        <ele>1797.5</ele>
        <time>2020-12-18T17:06:12Z</time>
      </trkpt>
      <trkpt lat="44.17563" lon="5.27625">
        <ele>1788.3</ele>
        <time>2020-12-18T17:06:12Z</time>
      </trkpt>
      <trkpt lat="44.17643" lon="5.27682">
        <ele>1778.8</ele>
        <time>2020-12-18T17:06:12Z</time>
      </trkpt>
      <trkpt lat="44.17663" lon="5.27708">
        <ele>1775.7</ele>
        <time>2020-12-18T17:06:12Z</time>
      </trkpt>
      <trkpt lat="44.17724" lon="5.27867">
        <ele>1762.3</ele>
        <time>2020-12-18T17:06:12Z</time>
      </trkpt>
      <trkpt lat="44.17742" lon="5.2798">
        <ele>1755</ele>
        <time>2020-12-18T17:06:12Z</time>
      </trkpt>
      <trkpt lat="44.17734" lon="5.2803">
        <ele>1756.7</ele>
        <time>2020-12-18T17:06:12Z</time>
      </trkpt>
      <trkpt lat="44.17744" lon="5.28043">
        <ele>1752.5</ele>
        <time>2020-12-18T17:06:12Z</time>
      </trkpt>
      <trkpt lat="44.17757" lon="5.28034">
        <ele>1745</ele>
        <time>2020-12-18T17:06:12Z</time>
      </trkpt>
      <trkpt lat="44.1776" lon="5.27983">
        <ele>1744.2</ele>
        <time>2020-12-18T17:06:12Z</time>
      </trkpt>
      <trkpt lat="44.17767" lon="5.27924">
        <ele>1739.6</ele>
        <time>2020-12-18T17:06:12Z</time>
      </trkpt>
      <trkpt lat="44.1777" lon="5.27871">
        <ele>1736</ele>
        <time>2020-12-18T17:06:12Z</time>
      </trkpt>
      <trkpt lat="44.17773" lon="5.27814">
        <ele>1730.9</ele>
        <time>2020-12-18T17:06:12Z</time>
      </trkpt>
      <trkpt lat="44.17774" lon="5.27757">
        <ele>1727.2</ele>
        <time>2020-12-18T17:06:12Z</time>
      </trkpt>
      <trkpt lat="44.17771" lon="5.27708">
        <ele>1724.4</ele>
        <time>2020-12-18T17:06:12Z</time>
      </trkpt>
      <trkpt lat="44.1777" lon="5.27672">
        <ele>1719.7</ele>
        <time>2020-12-18T17:06:12Z</time>
      </trkpt>
      <trkpt lat="44.17742" lon="5.27569">
        <ele>1711.8</ele>
        <time>2020-12-18T17:06:12Z</time>
      </trkpt>
      <trkpt lat="44.17725" lon="5.27532">
        <ele>1709.1</ele>
        <time>2020-12-18T17:06:12Z</time>
      </trkpt>
      <trkpt lat="44.1769" lon="5.27479">
        <ele>1702.8</ele>
        <time>2020-12-18T17:06:12Z</time>
      </trkpt>
      <trkpt lat="44.17634" lon="5.27453">
        <ele>1698.5</ele>
        <time>2020-12-18T17:06:12Z</time>
      </trkpt>
      <trkpt lat="44.17612" lon="5.27434">
        <ele>1695.7</ele>
        <time>2020-12-18T17:06:12Z</time>
      </trkpt>
      <trkpt lat="44.1761" lon="5.27406">
        <ele>1692.8</ele>
        <time>2020-12-18T17:06:12Z</time>
      </trkpt>
      <trkpt lat="44.17651" lon="5.27316">
        <ele>1686.5</ele>
        <time>2020-12-18T17:06:12Z</time>
      </trkpt>
      <trkpt lat="44.17677" lon="5.2729">
        <ele>1682.1</ele>
        <time>2020-12-18T17:06:12Z</time>
      </trkpt>
      <trkpt lat="44.17715" lon="5.27256">
        <ele>1677.3</ele>
        <time>2020-12-18T17:06:12Z</time>
      </trkpt>
      <trkpt lat="44.17727" lon="5.27206">
        <ele>1673.8</ele>
        <time>2020-12-18T17:06:12Z</time>
      </trkpt>
      <trkpt lat="44.17734" lon="5.27134">
        <ele>1671</ele>
        <time>2020-12-18T17:06:12Z</time>
      </trkpt>
      <trkpt lat="44.17751" lon="5.27051">
        <ele>1664.6</ele>
        <time>2020-12-18T17:06:12Z</time>
      </trkpt>
      <trkpt lat="44.17765" lon="5.26891">
        <ele>1653.7</ele>
        <time>2020-12-18T17:06:12Z</time>
      </trkpt>
      <trkpt lat="44.1777" lon="5.26734">
        <ele>1642.8</ele>
        <time>2020-12-18T17:06:12Z</time>
      </trkpt>
      <trkpt lat="44.17757" lon="5.26609">
        <ele>1637.1</ele>
        <time>2020-12-18T17:06:12Z</time>
      </trkpt>
      <trkpt lat="44.17782" lon="5.26509">
        <ele>1628</ele>
        <time>2020-12-18T17:06:12Z</time>
      </trkpt>
      <trkpt lat="44.17785" lon="5.26381">
        <ele>1620.3</ele>
        <time>2020-12-18T17:06:12Z</time>
      </trkpt>
      <trkpt lat="44.17782" lon="5.26211">
        <ele>1607.2</ele>
        <time>2020-12-18T17:06:12Z</time>
      </trkpt>
      <trkpt lat="44.17789" lon="5.2614">
        <ele>1601.1</ele>
        <time>2020-12-18T17:06:12Z</time>
      </trkpt>
      <trkpt lat="44.17785" lon="5.25981">
        <ele>1591.5</ele>
        <time>2020-12-18T17:06:12Z</time>
      </trkpt>
      <trkpt lat="44.17769" lon="5.25914">
        <ele>1588.2</ele>
        <time>2020-12-18T17:06:12Z</time>
      </trkpt>
      <trkpt lat="44.17783" lon="5.25864">
        <ele>1582.7</ele>
        <time>2020-12-18T17:06:12Z</time>
      </trkpt>
      <trkpt lat="44.17798" lon="5.25796">
        <ele>1578</ele>
        <time>2020-12-18T17:06:12Z</time>
      </trkpt>
      <trkpt lat="44.17801" lon="5.25744">
        <ele>1575.3</ele>
        <time>2020-12-18T17:06:12Z</time>
      </trkpt>
      <trkpt lat="44.178" lon="5.25688">
        <ele>1572.9</ele>
        <time>2020-12-18T17:06:12Z</time>
      </trkpt>
      <trkpt lat="44.17792" lon="5.25619">
        <ele>1569</ele>
        <time>2020-12-18T17:06:12Z</time>
      </trkpt>
      <trkpt lat="44.17764" lon="5.2555">
        <ele>1569.5</ele>
        <time>2020-12-18T17:06:12Z</time>
      </trkpt>
      <trkpt lat="44.17779" lon="5.2547">
        <ele>1563.1</ele>
        <time>2020-12-18T17:06:12Z</time>
      </trkpt>
      <trkpt lat="44.17775" lon="5.25351">
        <ele>1558.9</ele>
        <time>2020-12-18T17:06:12Z</time>
      </trkpt>
      <trkpt lat="44.17762" lon="5.25207">
        <ele>1553.8</ele>
        <time>2020-12-18T17:06:12Z</time>
      </trkpt>
      <trkpt lat="44.17754" lon="5.25075">
        <ele>1548.1</ele>
        <time>2020-12-18T17:06:12Z</time>
      </trkpt>
      <trkpt lat="44.17745" lon="5.24996">
        <ele>1544.1</ele>
        <time>2020-12-18T17:06:12Z</time>
      </trkpt>
      <trkpt lat="44.1773" lon="5.24923">
        <ele>1540.9</ele>
        <time>2020-12-18T17:06:12Z</time>
      </trkpt>
      <trkpt lat="44.17714" lon="5.24857">
        <ele>1538.2</ele>
        <time>2020-12-18T17:06:12Z</time>
      </trkpt>
      <trkpt lat="44.17696" lon="5.24788">
        <ele>1533.6</ele>
        <time>2020-12-18T17:06:12Z</time>
      </trkpt>
      <trkpt lat="44.1768" lon="5.24722">
        <ele>1528.8</ele>
        <time>2020-12-18T17:06:12Z</time>
      </trkpt>
      <trkpt lat="44.17664" lon="5.24695">
        <ele>1527.9</ele>
        <time>2020-12-18T17:06:12Z</time>
      </trkpt>
      <trkpt lat="44.17659" lon="5.24668">
        <ele>1528.1</ele>
        <time>2020-12-18T17:06:12Z</time>
      </trkpt>
      <trkpt lat="44.17675" lon="5.24671">
        <ele>1520.4</ele>
        <time>2020-12-18T17:06:12Z</time>
      </trkpt>
      <trkpt lat="44.17694" lon="5.24719">
        <ele>1521.6</ele>
        <time>2020-12-18T17:06:12Z</time>
      </trkpt>
      <trkpt lat="44.17749" lon="5.24798">
        <ele>1512.2</ele>
        <time>2020-12-18T17:06:12Z</time>
      </trkpt>
      <trkpt lat="44.1779" lon="5.24862">
        <ele>1504.1</ele>
        <time>2020-12-18T17:06:12Z</time>
      </trkpt>
      <trkpt lat="44.17825" lon="5.24926">
        <ele>1498.5</ele>
        <time>2020-12-18T17:06:12Z</time>
      </trkpt>
      <trkpt lat="44.17857" lon="5.24986">
        <ele>1492.1</ele>
        <time>2020-12-18T17:06:12Z</time>
      </trkpt>
      <trkpt lat="44.17874" lon="5.25022">
        <ele>1487.8</ele>
        <time>2020-12-18T17:06:12Z</time>
      </trkpt>
      <trkpt lat="44.17897" lon="5.25088">
        <ele>1481.4</ele>
        <time>2020-12-18T17:06:12Z</time>
      </trkpt>
      <trkpt lat="44.17902" lon="5.2512">
        <ele>1477.3</ele>
        <time>2020-12-18T17:06:12Z</time>
      </trkpt>
      <trkpt lat="44.17887" lon="5.25191">
        <ele>1473.9</ele>
        <time>2020-12-18T17:06:12Z</time>
      </trkpt>
      <trkpt lat="44.17899" lon="5.25228">
        <ele>1470.3</ele>
        <time>2020-12-18T17:06:12Z</time>
      </trkpt>
      <trkpt lat="44.17918" lon="5.25298">
        <ele>1463.1</ele>
        <time>2020-12-18T17:06:12Z</time>
      </trkpt>
      <trkpt lat="44.1793" lon="5.25358">
        <ele>1459.1</ele>
        <time>2020-12-18T17:06:12Z</time>
      </trkpt>
      <trkpt lat="44.17957" lon="5.2543">
        <ele>1451.8</ele>
        <time>2020-12-18T17:06:12Z</time>
      </trkpt>
      <trkpt lat="44.1797" lon="5.25489">
        <ele>1448.1</ele>
        <time>2020-12-18T17:06:12Z</time>
      </trkpt>
      <trkpt lat="44.17992" lon="5.25511">
        <ele>1443.5</ele>
        <time>2020-12-18T17:06:12Z</time>
      </trkpt>
      <trkpt lat="44.18037" lon="5.25543">
        <ele>1438.2</ele>
        <time>2020-12-18T17:06:12Z</time>
      </trkpt>
      <trkpt lat="44.18077" lon="5.25583">
        <ele>1434</ele>
        <time>2020-12-18T17:06:12Z</time>
      </trkpt>
      <trkpt lat="44.18089" lon="5.25619">
        <ele>1431.6</ele>
        <time>2020-12-18T17:06:12Z</time>
      </trkpt>
      <trkpt lat="44.1809" lon="5.25837">
        <ele>1435.5</ele>
        <time>2020-12-18T17:06:12Z</time>
      </trkpt>
      <trkpt lat="44.18101" lon="5.2585">
        <ele>1435.1</ele>
        <time>2020-12-18T17:06:12Z</time>
      </trkpt>
      <trkpt lat="44.18111" lon="5.25838">
        <ele>1433.1</ele>
        <time>2020-12-18T17:06:12Z</time>
      </trkpt>
      <trkpt lat="44.18112" lon="5.25713">
        <ele>1429.5</ele>
        <time>2020-12-18T17:06:12Z</time>
      </trkpt>
      <trkpt lat="44.18107" lon="5.25565">
        <ele>1425.3</ele>
        <time>2020-12-18T17:06:12Z</time>
      </trkpt>
      <trkpt lat="44.1811" lon="5.25542">
        <ele>1424.2</ele>
        <time>2020-12-18T17:06:12Z</time>
      </trkpt>
      <trkpt lat="44.18122" lon="5.25542">
        <ele>1421.6</ele>
        <time>2020-12-18T17:06:12Z</time>
      </trkpt>
      <trkpt lat="44.1816" lon="5.25696">
        <ele>1420.5</ele>
        <time>2020-12-18T17:06:12Z</time>
      </trkpt>
      <trkpt lat="44.18183" lon="5.25744">
        <ele>1418.8</ele>
        <time>2020-12-18T17:06:12Z</time>
      </trkpt>
      <trkpt lat="44.18276" lon="5.25903">
        <ele>1405</ele>
        <time>2020-12-18T17:06:12Z</time>
      </trkpt>
      <trkpt lat="44.18291" lon="5.25948">
        <ele>1402.2</ele>
        <time>2020-12-18T17:06:12Z</time>
      </trkpt>
      <trkpt lat="44.18329" lon="5.26228">
        <ele>1385.3</ele>
        <time>2020-12-18T17:06:12Z</time>
      </trkpt>
      <trkpt lat="44.18396" lon="5.26224">
        <ele>1377.6</ele>
        <time>2020-12-18T17:06:12Z</time>
      </trkpt>
      <trkpt lat="44.18428" lon="5.2625">
        <ele>1372.4</ele>
        <time>2020-12-18T17:06:12Z</time>
      </trkpt>
      <trkpt lat="44.18432" lon="5.26292">
        <ele>1369.6</ele>
        <time>2020-12-18T17:06:12Z</time>
      </trkpt>
      <trkpt lat="44.18514" lon="5.26358">
        <ele>1358.3</ele>
        <time>2020-12-18T17:06:12Z</time>
      </trkpt>
      <trkpt lat="44.18529" lon="5.2632">
        <ele>1359.3</ele>
        <time>2020-12-18T17:06:12Z</time>
      </trkpt>
      <trkpt lat="44.18608" lon="5.2632">
        <ele>1349.9</ele>
        <time>2020-12-18T17:06:12Z</time>
      </trkpt>
      <trkpt lat="44.18666" lon="5.26204">
        <ele>1356.2</ele>
        <time>2020-12-18T17:06:12Z</time>
      </trkpt>
      <trkpt lat="44.18714" lon="5.26182">
        <ele>1355</ele>
        <time>2020-12-18T17:06:12Z</time>
      </trkpt>
      <trkpt lat="44.18799" lon="5.26095">
        <ele>1345.3</ele>
        <time>2020-12-18T17:06:12Z</time>
      </trkpt>
      <trkpt lat="44.18834" lon="5.26049">
        <ele>1340.9</ele>
        <time>2020-12-18T17:06:12Z</time>
      </trkpt>
      <trkpt lat="44.18853" lon="5.26007">
        <ele>1338.9</ele>
        <time>2020-12-18T17:06:12Z</time>
      </trkpt>
      <trkpt lat="44.18881" lon="5.26043">
        <ele>1337.9</ele>
        <time>2020-12-18T17:06:12Z</time>
      </trkpt>
      <trkpt lat="44.18898" lon="5.26027">
        <ele>1335.6</ele>
        <time>2020-12-18T17:06:12Z</time>
      </trkpt>
      <trkpt lat="44.18899" lon="5.25924">
        <ele>1329.2</ele>
        <time>2020-12-18T17:06:12Z</time>
      </trkpt>
      <trkpt lat="44.18893" lon="5.25811">
        <ele>1322.1</ele>
        <time>2020-12-18T17:06:12Z</time>
      </trkpt>
      <trkpt lat="44.18871" lon="5.25727">
        <ele>1317.6</ele>
        <time>2020-12-18T17:06:12Z</time>
      </trkpt>
      <trkpt lat="44.18806" lon="5.25619">
        <ele>1312.1</ele>
        <time>2020-12-18T17:06:12Z</time>
      </trkpt>
      <trkpt lat="44.18763" lon="5.25319">
        <ele>1291.7</ele>
        <time>2020-12-18T17:06:12Z</time>
      </trkpt>
      <trkpt lat="44.18754" lon="5.25134">
        <ele>1277.5</ele>
        <time>2020-12-18T17:06:12Z</time>
      </trkpt>
      <trkpt lat="44.18742" lon="5.25036">
        <ele>1269.9</ele>
        <time>2020-12-18T17:06:12Z</time>
      </trkpt>
      <trkpt lat="44.18702" lon="5.24951">
        <ele>1260.8</ele>
        <time>2020-12-18T17:06:12Z</time>
      </trkpt>
      <trkpt lat="44.18759" lon="5.25013">
        <ele>1255</ele>
        <time>2020-12-18T17:06:12Z</time>
      </trkpt>
      <trkpt lat="44.18801" lon="5.25105">
        <ele>1246</ele>
        <time>2020-12-18T17:06:12Z</time>
      </trkpt>
      <trkpt lat="44.18841" lon="5.25255">
        <ele>1237.2</ele>
        <time>2020-12-18T17:06:12Z</time>
      </trkpt>
      <trkpt lat="44.1884" lon="5.25275">
        <ele>1240</ele>
        <time>2020-12-18T17:06:12Z</time>
      </trkpt>
      <trkpt lat="44.18926" lon="5.25497">
        <ele>1221.9</ele>
        <time>2020-12-18T17:06:12Z</time>
      </trkpt>
      <trkpt lat="44.19026" lon="5.25595">
        <ele>1209.3</ele>
        <time>2020-12-18T17:06:12Z</time>
      </trkpt>
      <trkpt lat="44.19091" lon="5.25687">
        <ele>1200.3</ele>
        <time>2020-12-18T17:06:12Z</time>
      </trkpt>
      <trkpt lat="44.19153" lon="5.25784">
        <ele>1189.3</ele>
        <time>2020-12-18T17:06:12Z</time>
      </trkpt>
      <trkpt lat="44.19203" lon="5.2589">
        <ele>1183.6</ele>
        <time>2020-12-18T17:06:12Z</time>
      </trkpt>
      <trkpt lat="44.19231" lon="5.25908">
        <ele>1181.7</ele>
        <time>2020-12-18T17:06:12Z</time>
      </trkpt>
      <trkpt lat="44.19241" lon="5.25892">
        <ele>1180.9</ele>
        <time>2020-12-18T17:06:12Z</time>
      </trkpt>
      <trkpt lat="44.19217" lon="5.25671">
        <ele>1166.4</ele>
        <time>2020-12-18T17:06:12Z</time>
      </trkpt>
      <trkpt lat="44.19156" lon="5.25535">
        <ele>1156.6</ele>
        <time>2020-12-18T17:06:12Z</time>
      </trkpt>
      <trkpt lat="44.19037" lon="5.25229">
        <ele>1129.3</ele>
        <time>2020-12-18T17:06:12Z</time>
      </trkpt>
      <trkpt lat="44.18907" lon="5.24666">
        <ele>1089.6</ele>
        <time>2020-12-18T17:06:12Z</time>
      </trkpt>
      <trkpt lat="44.1882" lon="5.24456">
        <ele>1083.1</ele>
        <time>2020-12-18T17:06:12Z</time>
      </trkpt>
      <trkpt lat="44.18776" lon="5.2423">
        <ele>1066.7</ele>
        <time>2020-12-18T17:06:12Z</time>
      </trkpt>
      <trkpt lat="44.18811" lon="5.24274">
        <ele>1063</ele>
        <time>2020-12-18T17:06:12Z</time>
      </trkpt>
      <trkpt lat="44.18873" lon="5.24477">
        <ele>1059.3</ele>
        <time>2020-12-18T17:06:12Z</time>
      </trkpt>
      <trkpt lat="44.19081" lon="5.24857">
        <ele>1043.7</ele>
        <time>2020-12-18T17:06:12Z</time>
      </trkpt>
      <trkpt lat="44.19085" lon="5.24745">
        <ele>1039.9</ele>
        <time>2020-12-18T17:06:12Z</time>
      </trkpt>
      <trkpt lat="44.19064" lon="5.24335">
        <ele>1025.3</ele>
        <time>2020-12-18T17:06:12Z</time>
      </trkpt>
      <trkpt lat="44.19098" lon="5.24185">
        <ele>1018.6</ele>
        <time>2020-12-18T17:06:12Z</time>
      </trkpt>
      <trkpt lat="44.19127" lon="5.2417">
        <ele>1017</ele>
        <time>2020-12-18T17:06:12Z</time>
      </trkpt>
      <trkpt lat="44.19332" lon="5.24374">
        <ele>1010.4</ele>
        <time>2020-12-18T17:06:12Z</time>
      </trkpt>
      <trkpt lat="44.19394" lon="5.24254">
        <ele>1003.6</ele>
        <time>2020-12-18T17:06:12Z</time>
      </trkpt>
      <trkpt lat="44.19546" lon="5.24165">
        <ele>995.5</ele>
        <time>2020-12-18T17:06:12Z</time>
      </trkpt>
      <trkpt lat="44.19582" lon="5.24178">
        <ele>996.1</ele>
        <time>2020-12-18T17:06:12Z</time>
      </trkpt>
      <trkpt lat="44.19625" lon="5.24418">
        <ele>992.9</ele>
        <time>2020-12-18T17:06:12Z</time>
      </trkpt>
      <trkpt lat="44.19703" lon="5.24629">
        <ele>983.6</ele>
        <time>2020-12-18T17:06:12Z</time>
      </trkpt>
      <trkpt lat="44.19696" lon="5.24757">
        <ele>980.9</ele>
        <time>2020-12-18T17:06:12Z</time>
      </trkpt>
      <trkpt lat="44.19647" lon="5.24848">
        <ele>978.5</ele>
        <time>2020-12-18T17:06:12Z</time>
      </trkpt>
      <trkpt lat="44.19632" lon="5.25005">
        <ele>977.5</ele>
        <time>2020-12-18T17:06:12Z</time>
      </trkpt>
      <trkpt lat="44.19679" lon="5.25251">
        <ele>976.4</ele>
        <time>2020-12-18T17:06:12Z</time>
      </trkpt>
      <trkpt lat="44.19666" lon="5.25522">
        <ele>978.8</ele>
        <time>2020-12-18T17:06:12Z</time>
      </trkpt>
      <trkpt lat="44.1966" lon="5.25773">
        <ele>980.2</ele>
        <time>2020-12-18T17:06:12Z</time>
      </trkpt>
      <trkpt lat="44.19636" lon="5.26057">
        <ele>980.9</ele>
        <time>2020-12-18T17:06:12Z</time>
      </trkpt>
      <trkpt lat="44.19628" lon="5.26319">
        <ele>975.2</ele>
        <time>2020-12-18T17:06:12Z</time>
      </trkpt>
      <trkpt lat="44.19322" lon="5.26524">
        <ele>973.6</ele>
        <time>2020-12-18T17:06:12Z</time>
      </trkpt>
      <trkpt lat="44.19344" lon="5.26869">
        <ele>976.8</ele>
        <time>2020-12-18T17:06:12Z</time>
      </trkpt>
      <trkpt lat="44.19379" lon="5.2697">
        <ele>977.7</ele>
        <time>2020-12-18T17:06:12Z</time>
      </trkpt>
      <trkpt lat="44.19328" lon="5.27125">
        <ele>981.6</ele>
        <time>2020-12-18T17:06:12Z</time>
      </trkpt>
      <trkpt lat="44.1935" lon="5.27314">
        <ele>976</ele>
        <time>2020-12-18T17:06:12Z</time>
      </trkpt>
      <trkpt lat="44.19311" lon="5.27386">
        <ele>977.9</ele>
        <time>2020-12-18T17:06:12Z</time>
      </trkpt>
      <trkpt lat="44.1931" lon="5.27554">
        <ele>977.1</ele>
        <time>2020-12-18T17:06:12Z</time>
      </trkpt>
      <trkpt lat="44.19353" lon="5.27744">
        <ele>979.6</ele>
        <time>2020-12-18T17:06:12Z</time>
      </trkpt>
      <trkpt lat="44.19333" lon="5.2791">
        <ele>980.3</ele>
        <time>2020-12-18T17:06:12Z</time>
      </trkpt>
      <trkpt lat="44.19418" lon="5.28049">
        <ele>977.2</ele>
        <time>2020-12-18T17:06:12Z</time>
      </trkpt>
      <trkpt lat="44.19419" lon="5.28131">
        <ele>977</ele>
        <time>2020-12-18T17:06:12Z</time>
      </trkpt>
      <trkpt lat="44.19351" lon="5.28261">
        <ele>980.5</ele>
        <time>2020-12-18T17:06:12Z</time>
      </trkpt>
      <trkpt lat="44.19374" lon="5.28397">
        <ele>977.4</ele>
        <time>2020-12-18T17:06:12Z</time>
      </trkpt>
      <trkpt lat="44.19208" lon="5.28477">
        <ele>980.2</ele>
        <time>2020-12-18T17:06:12Z</time>
      </trkpt>
      <trkpt lat="44.19153" lon="5.28588">
        <ele>971</ele>
        <time>2020-12-18T17:06:12Z</time>
      </trkpt>
      <trkpt lat="44.18886" lon="5.28914">
        <ele>956.4</ele>
        <time>2020-12-18T17:06:12Z</time>
      </trkpt>
      <trkpt lat="44.18929" lon="5.29075">
        <ele>946.6</ele>
        <time>2020-12-18T17:06:12Z</time>
      </trkpt>
      <trkpt lat="44.18971" lon="5.29159">
        <ele>934.7</ele>
        <time>2020-12-18T17:06:12Z</time>
      </trkpt>
      <trkpt lat="44.18988" lon="5.29548">
        <ele>908.6</ele>
        <time>2020-12-18T17:06:12Z</time>
      </trkpt>
      <trkpt lat="44.19027" lon="5.29812">
        <ele>888.1</ele>
        <time>2020-12-18T17:06:12Z</time>
      </trkpt>
      <trkpt lat="44.18928" lon="5.29894">
        <ele>880.8</ele>
        <time>2020-12-18T17:06:12Z</time>
      </trkpt>
      <trkpt lat="44.18913" lon="5.30041">
        <ele>868.1</ele>
        <time>2020-12-18T17:06:12Z</time>
      </trkpt>
      <trkpt lat="44.1884" lon="5.30154">
        <ele>862.1</ele>
        <time>2020-12-18T17:06:12Z</time>
      </trkpt>
      <trkpt lat="44.18845" lon="5.30256">
        <ele>855.6</ele>
        <time>2020-12-18T17:06:12Z</time>
      </trkpt>
      <trkpt lat="44.18978" lon="5.30464">
        <ele>837.5</ele>
        <time>2020-12-18T17:06:12Z</time>
      </trkpt>
      <trkpt lat="44.18942" lon="5.3062">
        <ele>829.1</ele>
        <time>2020-12-18T17:06:12Z</time>
      </trkpt>
      <trkpt lat="44.18855" lon="5.30758">
        <ele>819.6</ele>
        <time>2020-12-18T17:06:12Z</time>
      </trkpt>
      <trkpt lat="44.18845" lon="5.3094">
        <ele>806.1</ele>
        <time>2020-12-18T17:06:12Z</time>
      </trkpt>
      <trkpt lat="44.18806" lon="5.3102">
        <ele>803</ele>
        <time>2020-12-18T17:06:12Z</time>
      </trkpt>
      <trkpt lat="44.18695" lon="5.30927">
        <ele>789.6</ele>
        <time>2020-12-18T17:06:12Z</time>
      </trkpt>
      <trkpt lat="44.1853" lon="5.30309">
        <ele>758.7</ele>
        <time>2020-12-18T17:06:12Z</time>
      </trkpt>
      <trkpt lat="44.18495" lon="5.30275">
        <ele>753.7</ele>
        <time>2020-12-18T17:06:12Z</time>
      </trkpt>
      <trkpt lat="44.18428" lon="5.30303">
        <ele>746.2</ele>
        <time>2020-12-18T17:06:12Z</time>
      </trkpt>
      <trkpt lat="44.18372" lon="5.30287">
        <ele>745.6</ele>
        <time>2020-12-18T17:06:12Z</time>
      </trkpt>
      <trkpt lat="44.18325" lon="5.30308">
        <ele>740</ele>
        <time>2020-12-18T17:06:12Z</time>
      </trkpt>
      <trkpt lat="44.18287" lon="5.30281">
        <ele>745.9</ele>
        <time>2020-12-18T17:06:12Z</time>
      </trkpt>
      <trkpt lat="44.18288" lon="5.30464">
        <ele>721.3</ele>
        <time>2020-12-18T17:06:12Z</time>
      </trkpt>
      <trkpt lat="44.18193" lon="5.30404">
        <ele>726.4</ele>
        <time>2020-12-18T17:06:12Z</time>
      </trkpt>
      <trkpt lat="44.18217" lon="5.30524">
        <ele>714.7</ele>
        <time>2020-12-18T17:06:12Z</time>
      </trkpt>
      <trkpt lat="44.18199" lon="5.30632">
        <ele>712.7</ele>
        <time>2020-12-18T17:06:12Z</time>
      </trkpt>
      <trkpt lat="44.18218" lon="5.30715">
        <ele>701.3</ele>
        <time>2020-12-18T17:06:12Z</time>
      </trkpt>
      <trkpt lat="44.18196" lon="5.30847">
        <ele>695.6</ele>
        <time>2020-12-18T17:06:12Z</time>
      </trkpt>
      <trkpt lat="44.18167" lon="5.30997">
        <ele>685.4</ele>
        <time>2020-12-18T17:06:12Z</time>
      </trkpt>
      <trkpt lat="44.18038" lon="5.31221">
        <ele>675.9</ele>
        <time>2020-12-18T17:06:12Z</time>
      </trkpt>
      <trkpt lat="44.18036" lon="5.31379">
        <ele>663.5</ele>
        <time>2020-12-18T17:06:12Z</time>
      </trkpt>
      <trkpt lat="44.17999" lon="5.31507">
        <ele>656.6</ele>
        <time>2020-12-18T17:06:12Z</time>
      </trkpt>
      <trkpt lat="44.17959" lon="5.31666">
        <ele>648.4</ele>
        <time>2020-12-18T17:06:12Z</time>
      </trkpt>
      <trkpt lat="44.18167" lon="5.31703">
        <ele>629.5</ele>
        <time>2020-12-18T17:06:12Z</time>
      </trkpt>
      <trkpt lat="44.18201" lon="5.31755">
        <ele>625.9</ele>
        <time>2020-12-18T17:06:12Z</time>
      </trkpt>
      <trkpt lat="44.18166" lon="5.31897">
        <ele>617.8</ele>
        <time>2020-12-18T17:06:12Z</time>
      </trkpt>
      <trkpt lat="44.18185" lon="5.31963">
        <ele>616</ele>
        <time>2020-12-18T17:06:12Z</time>
      </trkpt>
      <trkpt lat="44.1827" lon="5.31867">
        <ele>603.2</ele>
        <time>2020-12-18T17:06:12Z</time>
      </trkpt>
      <trkpt lat="44.18358" lon="5.31859">
        <ele>597.2</ele>
        <time>2020-12-18T17:06:12Z</time>
      </trkpt>
      <trkpt lat="44.18403" lon="5.32029">
        <ele>590.1</ele>
        <time>2020-12-18T17:06:12Z</time>
      </trkpt>
      <trkpt lat="44.18427" lon="5.32279">
        <ele>586.3</ele>
        <time>2020-12-18T17:06:12Z</time>
      </trkpt>
      <trkpt lat="44.18411" lon="5.32328">
        <ele>586</ele>
        <time>2020-12-18T17:06:12Z</time>
      </trkpt>
      <trkpt lat="44.18488" lon="5.32427">
        <ele>588.4</ele>
        <time>2020-12-18T17:06:12Z</time>
      </trkpt>
      <trkpt lat="44.18463" lon="5.3244">
        <ele>591</ele>
        <time>2020-12-18T17:06:12Z</time>
      </trkpt>
      <trkpt lat="44.18398" lon="5.32379">
        <ele>596.2</ele>
        <time>2020-12-18T17:06:12Z</time>
      </trkpt>
      <trkpt lat="44.18364" lon="5.32411">
        <ele>604.9</ele>
        <time>2020-12-18T17:06:12Z</time>
      </trkpt>
      <trkpt lat="44.18404" lon="5.32496">
        <ele>613.6</ele>
        <time>2020-12-18T17:06:12Z</time>
      </trkpt>
      <trkpt lat="44.18196" lon="5.32533">
        <ele>633.9</ele>
        <time>2020-12-18T17:06:12Z</time>
      </trkpt>
      <trkpt lat="44.18246" lon="5.32652">
        <ele>641.9</ele>
        <time>2020-12-18T17:06:12Z</time>
      </trkpt>
      <trkpt lat="44.18224" lon="5.32732">
        <ele>647.9</ele>
        <time>2020-12-18T17:06:12Z</time>
      </trkpt>
      <trkpt lat="44.18147" lon="5.32657">
        <ele>636.7</ele>
        <time>2020-12-18T17:06:12Z</time>
      </trkpt>
      <trkpt lat="44.17918" lon="5.3276">
        <ele>608.8</ele>
        <time>2020-12-18T17:06:12Z</time>
      </trkpt>
      <trkpt lat="44.1783" lon="5.32915">
        <ele>601.7</ele>
        <time>2020-12-18T17:06:12Z</time>
      </trkpt>
      <trkpt lat="44.17808" lon="5.33156">
        <ele>594.5</ele>
        <time>2020-12-18T17:06:12Z</time>
      </trkpt>
      <trkpt lat="44.17783" lon="5.33473">
        <ele>606.2</ele>
        <time>2020-12-18T17:06:12Z</time>
      </trkpt>
      <trkpt lat="44.17807" lon="5.33544">
        <ele>610.9</ele>
        <time>2020-12-18T17:06:12Z</time>
      </trkpt>
      <trkpt lat="44.1767" lon="5.33618">
        <ele>622.5</ele>
        <time>2020-12-18T17:06:12Z</time>
      </trkpt>
      <trkpt lat="44.17635" lon="5.33747">
        <ele>626.3</ele>
        <time>2020-12-18T17:06:12Z</time>
      </trkpt>
      <trkpt lat="44.17629" lon="5.33876">
        <ele>632.9</ele>
        <time>2020-12-18T17:06:12Z</time>
      </trkpt>
      <trkpt lat="44.17608" lon="5.33959">
        <ele>636.1</ele>
        <time>2020-12-18T17:06:12Z</time>
      </trkpt>
      <trkpt lat="44.17605" lon="5.34034">
        <ele>639.1</ele>
        <time>2020-12-18T17:06:12Z</time>
      </trkpt>
      <trkpt lat="44.17553" lon="5.34118">
        <ele>645.3</ele>
        <time>2020-12-18T17:06:12Z</time>
      </trkpt>
      <trkpt lat="44.17591" lon="5.34188">
        <ele>643.1</ele>
        <time>2020-12-18T17:06:12Z</time>
      </trkpt>
      <trkpt lat="44.17607" lon="5.34297">
        <ele>642.8</ele>
        <time>2020-12-18T17:06:12Z</time>
      </trkpt>
      <trkpt lat="44.17703" lon="5.3441">
        <ele>633.9</ele>
        <time>2020-12-18T17:06:12Z</time>
      </trkpt>
      <trkpt lat="44.17703" lon="5.3444">
        <ele>631</ele>
        <time>2020-12-18T17:06:12Z</time>
      </trkpt>
      <trkpt lat="44.17647" lon="5.34418">
        <ele>627.1</ele>
        <time>2020-12-18T17:06:12Z</time>
      </trkpt>
      <trkpt lat="44.1762" lon="5.34446">
        <ele>624.8</ele>
        <time>2020-12-18T17:06:12Z</time>
      </trkpt>
      <trkpt lat="44.17614" lon="5.34455">
        <ele>624.2</ele>
        <time>2020-12-18T17:06:12Z</time>
      </trkpt>
      <trkpt lat="44.17568" lon="5.34505">
        <ele>619.8</ele>
        <time>2020-12-18T17:06:12Z</time>
      </trkpt>
      <trkpt lat="44.17531" lon="5.34528">
        <ele>616.9</ele>
        <time>2020-12-18T17:06:12Z</time>
      </trkpt>
      <trkpt lat="44.17525" lon="5.34543">
        <ele>618.5</ele>
        <time>2020-12-18T17:06:12Z</time>
      </trkpt>
      <trkpt lat="44.17535" lon="5.34594">
        <ele>623.1</ele>
        <time>2020-12-18T17:06:12Z</time>
      </trkpt>
      <trkpt lat="44.17537" lon="5.34644">
        <ele>627.8</ele>
        <time>2020-12-18T17:06:12Z</time>
      </trkpt>
      <trkpt lat="44.17536" lon="5.34638">
        <ele>628</ele>
        <time>2020-12-18T17:06:12Z</time>
      </trkpt>
      <trkpt lat="44.17535" lon="5.34672">
        <ele>628.7</ele>
        <time>2020-12-18T17:06:12Z</time>
      </trkpt>
      <trkpt lat="44.17519" lon="5.34725">
        <ele>633.2</ele>
        <time>2020-12-18T17:06:12Z</time>
      </trkpt>
      <trkpt lat="44.17506" lon="5.34807">
        <ele>633.4</ele>
        <time>2020-12-18T17:06:12Z</time>
      </trkpt>
      <trkpt lat="44.17506" lon="5.34807">
        <ele>633.4</ele>
        <time>2020-12-18T17:06:12Z</time>
      </trkpt>
      <trkpt lat="44.17507" lon="5.34818">
        <ele>634.1</ele>
        <time>2020-12-18T17:06:12Z</time>
      </trkpt>
      <trkpt lat="44.17544" lon="5.3488">
        <ele>634.7</ele>
        <time>2020-12-18T17:06:12Z</time>
      </trkpt>
      <trkpt lat="44.17585" lon="5.34942">
        <ele>637.3</ele>
        <time>2020-12-18T17:06:12Z</time>
      </trkpt>
      <trkpt lat="44.17627" lon="5.34969">
        <ele>643.2</ele>
        <time>2020-12-18T17:06:12Z</time>
      </trkpt>
      <trkpt lat="44.17656" lon="5.34965">
        <ele>642.8</ele>
        <time>2020-12-18T17:06:12Z</time>
      </trkpt>
      <trkpt lat="44.17682" lon="5.34966">
        <ele>640.7</ele>
        <time>2020-12-18T17:06:12Z</time>
      </trkpt>
      <trkpt lat="44.17667" lon="5.35072">
        <ele>641.7</ele>
        <time>2020-12-18T17:06:12Z</time>
      </trkpt>
      <trkpt lat="44.17665" lon="5.3517">
        <ele>642.9</ele>
        <time>2020-12-18T17:06:12Z</time>
      </trkpt>
      <trkpt lat="44.17627" lon="5.35208">
        <ele>639.6</ele>
        <time>2020-12-18T17:06:12Z</time>
      </trkpt>
      <trkpt lat="44.17622" lon="5.35269">
        <ele>636.3</ele>
        <time>2020-12-18T17:06:12Z</time>
      </trkpt>
      <trkpt lat="44.17541" lon="5.35376">
        <ele>626.6</ele>
        <time>2020-12-18T17:06:12Z</time>
      </trkpt>
      <trkpt lat="44.17602" lon="5.35448">
        <ele>611.4</ele>
        <time>2020-12-18T17:06:12Z</time>
      </trkpt>
      <trkpt lat="44.17664" lon="5.35469">
        <ele>597.9</ele>
        <time>2020-12-18T17:06:12Z</time>
      </trkpt>
      <trkpt lat="44.17769" lon="5.35471">
        <ele>580.6</ele>
        <time>2020-12-18T17:06:12Z</time>
      </trkpt>
      <trkpt lat="44.17842" lon="5.35495">
        <ele>568.2</ele>
        <time>2020-12-18T17:06:12Z</time>
      </trkpt>
      <trkpt lat="44.17908" lon="5.35561">
        <ele>555.5</ele>
        <time>2020-12-18T17:06:12Z</time>
      </trkpt>
      <trkpt lat="44.17982" lon="5.35594">
        <ele>544.1</ele>
        <time>2020-12-18T17:06:12Z</time>
      </trkpt>
      <trkpt lat="44.18014" lon="5.35703">
        <ele>542.4</ele>
        <time>2020-12-18T17:06:12Z</time>
      </trkpt>
      <trkpt lat="44.18" lon="5.35778">
        <ele>539.1</ele>
        <time>2020-12-18T17:06:12Z</time>
      </trkpt>
      <trkpt lat="44.18021" lon="5.3587">
        <ele>536</ele>
        <time>2020-12-18T17:06:12Z</time>
      </trkpt>
      <trkpt lat="44.18045" lon="5.35917">
        <ele>528.8</ele>
        <time>2020-12-18T17:06:12Z</time>
      </trkpt>
      <trkpt lat="44.18143" lon="5.35931">
        <ele>510.4</ele>
        <time>2020-12-18T17:06:12Z</time>
      </trkpt>
      <trkpt lat="44.18152" lon="5.35982">
        <ele>502.6</ele>
        <time>2020-12-18T17:06:12Z</time>
      </trkpt>
      <trkpt lat="44.18119" lon="5.36135">
        <ele>495.2</ele>
        <time>2020-12-18T17:06:12Z</time>
      </trkpt>
      <trkpt lat="44.18078" lon="5.36297">
        <ele>495.7</ele>
        <time>2020-12-18T17:06:12Z</time>
      </trkpt>
      <trkpt lat="44.18058" lon="5.36432">
        <ele>499</ele>
        <time>2020-12-18T17:06:12Z</time>
      </trkpt>
      <trkpt lat="44.18072" lon="5.36596">
        <ele>502.2</ele>
        <time>2020-12-18T17:06:12Z</time>
      </trkpt>
      <trkpt lat="44.1809" lon="5.36805">
        <ele>506.1</ele>
        <time>2020-12-18T17:06:12Z</time>
      </trkpt>
      <trkpt lat="44.18095" lon="5.36881">
        <ele>504.6</ele>
        <time>2020-12-18T17:06:12Z</time>
      </trkpt>
      <trkpt lat="44.18073" lon="5.36947">
        <ele>502.2</ele>
        <time>2020-12-18T17:06:12Z</time>
      </trkpt>
      <trkpt lat="44.1804" lon="5.37035">
        <ele>506.8</ele>
        <time>2020-12-18T17:06:12Z</time>
      </trkpt>
      <trkpt lat="44.18004" lon="5.37165">
        <ele>510.4</ele>
        <time>2020-12-18T17:06:12Z</time>
      </trkpt>
      <trkpt lat="44.17995" lon="5.37223">
        <ele>511.5</ele>
        <time>2020-12-18T17:06:12Z</time>
      </trkpt>
      <trkpt lat="44.18005" lon="5.37294">
        <ele>511.3</ele>
        <time>2020-12-18T17:06:12Z</time>
      </trkpt>
      <trkpt lat="44.18019" lon="5.37352">
        <ele>508.6</ele>
        <time>2020-12-18T17:06:12Z</time>
      </trkpt>
      <trkpt lat="44.18014" lon="5.37386">
        <ele>509.5</ele>
        <time>2020-12-18T17:06:12Z</time>
      </trkpt>
      <trkpt lat="44.18006" lon="5.37438">
        <ele>508.4</ele>
        <time>2020-12-18T17:06:12Z</time>
      </trkpt>
      <trkpt lat="44.18021" lon="5.37462">
        <ele>506.1</ele>
        <time>2020-12-18T17:06:12Z</time>
      </trkpt>
      <trkpt lat="44.18038" lon="5.37486">
        <ele>504.8</ele>
        <time>2020-12-18T17:06:12Z</time>
      </trkpt>
      <trkpt lat="44.18057" lon="5.37493">
        <ele>503.8</ele>
        <time>2020-12-18T17:06:12Z</time>
      </trkpt>
      <trkpt lat="44.18071" lon="5.37496">
        <ele>504.2</ele>
        <time>2020-12-18T17:06:12Z</time>
      </trkpt>
      <trkpt lat="44.1808" lon="5.375">
        <ele>504.8</ele>
        <time>2020-12-18T17:06:12Z</time>
      </trkpt>
      <trkpt lat="44.18108" lon="5.37509">
        <ele>503.1</ele>
        <time>2020-12-18T17:06:12Z</time>
      </trkpt>
      <trkpt lat="44.18119" lon="5.37512">
        <ele>503.2</ele>
        <time>2020-12-18T17:06:12Z</time>
      </trkpt>
      <trkpt lat="44.18114" lon="5.37539">
        <ele>505.2</ele>
        <time>2020-12-18T17:06:12Z</time>
      </trkpt>
      <trkpt lat="44.18109" lon="5.37572">
        <ele>505.3</ele>
        <time>2020-12-18T17:06:12Z</time>
      </trkpt>
      <trkpt lat="44.18104" lon="5.37597">
        <ele>504.4</ele>
        <time>2020-12-18T17:06:12Z</time>
      </trkpt>
      <trkpt lat="44.18103" lon="5.37616">
        <ele>504.1</ele>
        <time>2020-12-18T17:06:12Z</time>
      </trkpt>
      <trkpt lat="44.18101" lon="5.37648">
        <ele>504</ele>
        <time>2020-12-18T17:06:12Z</time>
      </trkpt>
      <trkpt lat="44.18105" lon="5.37678">
        <ele>504.7</ele>
        <time>2020-12-18T17:06:12Z</time>
      </trkpt>
      <trkpt lat="44.1811" lon="5.377">
        <ele>505</ele>
        <time>2020-12-18T17:06:12Z</time>
      </trkpt>
      <trkpt lat="44.18147" lon="5.37712">
        <ele>504.6</ele>
        <time>2020-12-18T17:06:12Z</time>
      </trkpt>
      <trkpt lat="44.18132" lon="5.37757">
        <ele>505.5</ele>
        <time>2020-12-18T17:06:12Z</time>
      </trkpt>
      <trkpt lat="44.18142" lon="5.37775">
        <ele>505.9</ele>
        <time>2020-12-18T17:06:12Z</time>
      </trkpt>
      <trkpt lat="44.18151" lon="5.37794">
        <ele>505.7</ele>
        <time>2020-12-18T17:06:12Z</time>
      </trkpt>
      <trkpt lat="44.18166" lon="5.37818">
        <ele>506.9</ele>
        <time>2020-12-18T17:06:12Z</time>
      </trkpt>
      <trkpt lat="44.18175" lon="5.37839">
        <ele>506.3</ele>
        <time>2020-12-18T17:06:12Z</time>
      </trkpt>
      <trkpt lat="44.18181" lon="5.37859">
        <ele>505.6</ele>
        <time>2020-12-18T17:06:12Z</time>
      </trkpt>
      <trkpt lat="44.18185" lon="5.3788">
        <ele>507.6</ele>
        <time>2020-12-18T17:06:12Z</time>
      </trkpt>
      <trkpt lat="44.18189" lon="5.37903">
        <ele>509.5</ele>
        <time>2020-12-18T17:06:12Z</time>
      </trkpt>
      <trkpt lat="44.18192" lon="5.3793">
        <ele>510.5</ele>
        <time>2020-12-18T17:06:12Z</time>
      </trkpt>
      <trkpt lat="44.18193" lon="5.37953">
        <ele>510.5</ele>
        <time>2020-12-18T17:06:12Z</time>
      </trkpt>
      <trkpt lat="44.18195" lon="5.37987">
        <ele>509.9</ele>
        <time>2020-12-18T17:06:12Z</time>
      </trkpt>
      <trkpt lat="44.18197" lon="5.38023">
        <ele>511</ele>
        <time>2020-12-18T17:06:12Z</time>
      </trkpt>
      <trkpt lat="44.18202" lon="5.38049">
        <ele>511.3</ele>
        <time>2020-12-18T17:06:12Z</time>
      </trkpt>
      <trkpt lat="44.18231" lon="5.38126">
        <ele>509.8</ele>
        <time>2020-12-18T17:06:12Z</time>
      </trkpt>
      <trkpt lat="44.18251" lon="5.38197">
        <ele>511</ele>
        <time>2020-12-18T17:06:12Z</time>
      </trkpt>
      <trkpt lat="44.18266" lon="5.38283">
        <ele>511.7</ele>
        <time>2020-12-18T17:06:12Z</time>
      </trkpt>
      <trkpt lat="44.1828" lon="5.38354">
        <ele>513.1</ele>
        <time>2020-12-18T17:06:12Z</time>
      </trkpt>
      <trkpt lat="44.18288" lon="5.38409">
        <ele>512.9</ele>
        <time>2020-12-18T17:06:12Z</time>
      </trkpt>
      <trkpt lat="44.18305" lon="5.38484">
        <ele>513</ele>
        <time>2020-12-18T17:06:12Z</time>
      </trkpt>
      <trkpt lat="44.18317" lon="5.3856">
        <ele>513.4</ele>
        <time>2020-12-18T17:06:12Z</time>
      </trkpt>
      <trkpt lat="44.18329" lon="5.38623">
        <ele>514.3</ele>
        <time>2020-12-18T17:06:12Z</time>
      </trkpt>
      <trkpt lat="44.18336" lon="5.38692">
        <ele>515.1</ele>
        <time>2020-12-18T17:06:12Z</time>
      </trkpt>
      <trkpt lat="44.18332" lon="5.38729">
        <ele>514.9</ele>
        <time>2020-12-18T17:06:12Z</time>
      </trkpt>
      <trkpt lat="44.18308" lon="5.38787">
        <ele>514.4</ele>
        <time>2020-12-18T17:06:12Z</time>
      </trkpt>
      <trkpt lat="44.18293" lon="5.3883">
        <ele>514.5</ele>
        <time>2020-12-18T17:06:12Z</time>
      </trkpt>
      <trkpt lat="44.18219" lon="5.38982">
        <ele>515</ele>
        <time>2020-12-18T17:06:12Z</time>
      </trkpt>
      <trkpt lat="44.1818" lon="5.39052">
        <ele>515.9</ele>
        <time>2020-12-18T17:06:12Z</time>
      </trkpt>
      <trkpt lat="44.18139" lon="5.39139">
        <ele>517</ele>
        <time>2020-12-18T17:06:12Z</time>
      </trkpt>
      <trkpt lat="44.18124" lon="5.39175">
        <ele>517</ele>
        <time>2020-12-18T17:06:12Z</time>
      </trkpt>
      <trkpt lat="44.18059" lon="5.39305">
        <ele>519</ele>
        <time>2020-12-18T17:06:12Z</time>
      </trkpt>
      <trkpt lat="44.17997" lon="5.39443">
        <ele>521.6</ele>
        <time>2020-12-18T17:06:12Z</time>
      </trkpt>
      <trkpt lat="44.17967" lon="5.39499">
        <ele>525.6</ele>
        <time>2020-12-18T17:06:12Z</time>
      </trkpt>
      <trkpt lat="44.17932" lon="5.39611">
        <ele>530.4</ele>
        <time>2020-12-18T17:06:12Z</time>
      </trkpt>
      <trkpt lat="44.17905" lon="5.39697">
        <ele>527.1</ele>
        <time>2020-12-18T17:06:12Z</time>
      </trkpt>
      <trkpt lat="44.17879" lon="5.39786">
        <ele>528.3</ele>
        <time>2020-12-18T17:06:12Z</time>
      </trkpt>
      <trkpt lat="44.17868" lon="5.39823">
        <ele>529.9</ele>
        <time>2020-12-18T17:06:12Z</time>
      </trkpt>
      <trkpt lat="44.1784" lon="5.39883">
        <ele>529.4</ele>
        <time>2020-12-18T17:06:12Z</time>
      </trkpt>
      <trkpt lat="44.17807" lon="5.39963">
        <ele>530.1</ele>
        <time>2020-12-18T17:06:12Z</time>
      </trkpt>
      <trkpt lat="44.17788" lon="5.40008">
        <ele>532.7</ele>
        <time>2020-12-18T17:06:12Z</time>
      </trkpt>
      <trkpt lat="44.17768" lon="5.40044">
        <ele>533.5</ele>
        <time>2020-12-18T17:06:12Z</time>
      </trkpt>
      <trkpt lat="44.17736" lon="5.40085">
        <ele>533.2</ele>
        <time>2020-12-18T17:06:12Z</time>
      </trkpt>
      <trkpt lat="44.17698" lon="5.40126">
        <ele>533.1</ele>
        <time>2020-12-18T17:06:12Z</time>
      </trkpt>
      <trkpt lat="44.17668" lon="5.40158">
        <ele>532.5</ele>
        <time>2020-12-18T17:06:12Z</time>
      </trkpt>
      <trkpt lat="44.17638" lon="5.40183">
        <ele>534.9</ele>
        <time>2020-12-18T17:06:12Z</time>
      </trkpt>
      <trkpt lat="44.17608" lon="5.40177">
        <ele>536.8</ele>
        <time>2020-12-18T17:06:12Z</time>
      </trkpt>
      <trkpt lat="44.17576" lon="5.40163">
        <ele>536.5</ele>
        <time>2020-12-18T17:06:12Z</time>
      </trkpt>
      <trkpt lat="44.17548" lon="5.40165">
        <ele>537.2</ele>
        <time>2020-12-18T17:06:12Z</time>
      </trkpt>
      <trkpt lat="44.175" lon="5.40231">
        <ele>540</ele>
        <time>2020-12-18T17:06:12Z</time>
      </trkpt>
      <trkpt lat="44.175" lon="5.40306">
        <ele>544.1</ele>
        <time>2020-12-18T17:06:12Z</time>
      </trkpt>
      <trkpt lat="44.1749" lon="5.40416">
        <ele>543.7</ele>
        <time>2020-12-18T17:06:12Z</time>
      </trkpt>
      <trkpt lat="44.17483" lon="5.40467">
        <ele>543.8</ele>
        <time>2020-12-18T17:06:12Z</time>
      </trkpt>
      <trkpt lat="44.17445" lon="5.40516">
        <ele>542.2</ele>
        <time>2020-12-18T17:06:12Z</time>
      </trkpt>
      <trkpt lat="44.17398" lon="5.40549">
        <ele>542.9</ele>
        <time>2020-12-18T17:06:12Z</time>
      </trkpt>
      <trkpt lat="44.17339" lon="5.40611">
        <ele>543.4</ele>
        <time>2020-12-18T17:06:12Z</time>
      </trkpt>
      <trkpt lat="44.17304" lon="5.40671">
        <ele>543.2</ele>
        <time>2020-12-18T17:06:12Z</time>
      </trkpt>
      <trkpt lat="44.17233" lon="5.4075">
        <ele>541.2</ele>
        <time>2020-12-18T17:06:12Z</time>
      </trkpt>
      <trkpt lat="44.17208" lon="5.40808">
        <ele>546.6</ele>
        <time>2020-12-18T17:06:12Z</time>
      </trkpt>
      <trkpt lat="44.17128" lon="5.40955">
        <ele>548.7</ele>
        <time>2020-12-18T17:06:12Z</time>
      </trkpt>
      <trkpt lat="44.17091" lon="5.4104">
        <ele>548</ele>
        <time>2020-12-18T17:06:12Z</time>
      </trkpt>
      <trkpt lat="44.17083" lon="5.41091">
        <ele>549.8</ele>
        <time>2020-12-18T17:06:12Z</time>
      </trkpt>
      <trkpt lat="44.17088" lon="5.41126">
        <ele>554.4</ele>
        <time>2020-12-18T17:06:12Z</time>
      </trkpt>
      <trkpt lat="44.17091" lon="5.41192">
        <ele>552.4</ele>
        <time>2020-12-18T17:06:12Z</time>
      </trkpt>
      <trkpt lat="44.17083" lon="5.41229">
        <ele>551.9</ele>
        <time>2020-12-18T17:06:12Z</time>
      </trkpt>
      <trkpt lat="44.17066" lon="5.4126">
        <ele>551.9</ele>
        <time>2020-12-18T17:06:12Z</time>
      </trkpt>
      <trkpt lat="44.17037" lon="5.41305">
        <ele>552.9</ele>
        <time>2020-12-18T17:06:12Z</time>
      </trkpt>
      <trkpt lat="44.17016" lon="5.41347">
        <ele>555.8</ele>
        <time>2020-12-18T17:06:12Z</time>
      </trkpt>
      <trkpt lat="44.16998" lon="5.41386">
        <ele>554.1</ele>
        <time>2020-12-18T17:06:12Z</time>
      </trkpt>
      <trkpt lat="44.16984" lon="5.41426">
        <ele>554.2</ele>
        <time>2020-12-18T17:06:12Z</time>
      </trkpt>
      <trkpt lat="44.16977" lon="5.41484">
        <ele>558.4</ele>
        <time>2020-12-18T17:06:12Z</time>
      </trkpt>
      <trkpt lat="44.16971" lon="5.41525">
        <ele>558.2</ele>
        <time>2020-12-18T17:06:12Z</time>
      </trkpt>
      <trkpt lat="44.16958" lon="5.41595">
        <ele>559.5</ele>
        <time>2020-12-18T17:06:12Z</time>
      </trkpt>
      <trkpt lat="44.16945" lon="5.41649">
        <ele>559.9</ele>
        <time>2020-12-18T17:06:12Z</time>
      </trkpt>
      <trkpt lat="44.16934" lon="5.41702">
        <ele>561.7</ele>
        <time>2020-12-18T17:06:12Z</time>
      </trkpt>
      <trkpt lat="44.1692" lon="5.41776">
        <ele>559.6</ele>
        <time>2020-12-18T17:06:12Z</time>
      </trkpt>
      <trkpt lat="44.16894" lon="5.41808">
        <ele>559.1</ele>
        <time>2020-12-18T17:06:12Z</time>
      </trkpt>
      <trkpt lat="44.16837" lon="5.41853">
        <ele>561</ele>
        <time>2020-12-18T17:06:12Z</time>
      </trkpt>
      <trkpt lat="44.16809" lon="5.41877">
        <ele>561.5</ele>
        <time>2020-12-18T17:06:12Z</time>
      </trkpt>
      <trkpt lat="44.16785" lon="5.41902">
        <ele>561.3</ele>
        <time>2020-12-18T17:06:12Z</time>
      </trkpt>
      <trkpt lat="44.16765" lon="5.41937">
        <ele>562</ele>
        <time>2020-12-18T17:06:12Z</time>
      </trkpt>
      <trkpt lat="44.16751" lon="5.41973">
        <ele>560.4</ele>
        <time>2020-12-18T17:06:12Z</time>
      </trkpt>
      <trkpt lat="44.16735" lon="5.42032">
        <ele>556.8</ele>
        <time>2020-12-18T17:06:12Z</time>
      </trkpt>
      <trkpt lat="44.16714" lon="5.42121">
        <ele>554.1</ele>
        <time>2020-12-18T17:06:12Z</time>
      </trkpt>
      <trkpt lat="44.16709" lon="5.42216">
        <ele>552.5</ele>
        <time>2020-12-18T17:06:12Z</time>
      </trkpt>
      <trkpt lat="44.16704" lon="5.42329">
        <ele>554.3</ele>
        <time>2020-12-18T17:06:12Z</time>
      </trkpt>
      <trkpt lat="44.16697" lon="5.42481">
        <ele>556</ele>
        <time>2020-12-18T17:06:12Z</time>
      </trkpt>
      <trkpt lat="44.16686" lon="5.42651">
        <ele>558</ele>
        <time>2020-12-18T17:06:12Z</time>
      </trkpt>
      <trkpt lat="44.16688" lon="5.42688">
        <ele>558</ele>
        <time>2020-12-18T17:06:12Z</time>
      </trkpt>
      <trkpt lat="44.16686" lon="5.42733">
        <ele>558.4</ele>
        <time>2020-12-18T17:06:12Z</time>
      </trkpt>
      <trkpt lat="44.16672" lon="5.42769">
        <ele>559</ele>
        <time>2020-12-18T17:06:12Z</time>
      </trkpt>
      <trkpt lat="44.16641" lon="5.42827">
        <ele>560</ele>
        <time>2020-12-18T17:06:12Z</time>
      </trkpt>
      <trkpt lat="44.16608" lon="5.42894">
        <ele>562</ele>
        <time>2020-12-18T17:06:12Z</time>
      </trkpt>
      <trkpt lat="44.16573" lon="5.42954">
        <ele>563.3</ele>
        <time>2020-12-18T17:06:12Z</time>
      </trkpt>
      <trkpt lat="44.16547" lon="5.43001">
        <ele>565</ele>
        <time>2020-12-18T17:06:12Z</time>
      </trkpt>
      <trkpt lat="44.1652" lon="5.43049">
        <ele>565.6</ele>
        <time>2020-12-18T17:06:12Z</time>
      </trkpt>
      <trkpt lat="44.165" lon="5.43093">
        <ele>566.3</ele>
        <time>2020-12-18T17:06:12Z</time>
      </trkpt>
      <trkpt lat="44.16469" lon="5.43158">
        <ele>569.4</ele>
        <time>2020-12-18T17:06:12Z</time>
      </trkpt>
      <trkpt lat="44.165" lon="5.43177">
        <ele>570.7</ele>
        <time>2020-12-18T17:06:12Z</time>
      </trkpt>
      <trkpt lat="44.16617" lon="5.43214">
        <ele>573.6</ele>
        <time>2020-12-18T17:06:12Z</time>
      </trkpt>
      <trkpt lat="44.16656" lon="5.43222">
        <ele>576.2</ele>
        <time>2020-12-18T17:06:12Z</time>
      </trkpt>
      <trkpt lat="44.16689" lon="5.43237">
        <ele>578.8</ele>
        <time>2020-12-18T17:06:12Z</time>
      </trkpt>
      <trkpt lat="44.16723" lon="5.43256">
        <ele>580.2</ele>
        <time>2020-12-18T17:06:12Z</time>
      </trkpt>
      <trkpt lat="44.1677" lon="5.43279">
        <ele>578.3</ele>
        <time>2020-12-18T17:06:12Z</time>
      </trkpt>
      <trkpt lat="44.16812" lon="5.43263">
        <ele>577.8</ele>
        <time>2020-12-18T17:06:12Z</time>
      </trkpt>
      <trkpt lat="44.16857" lon="5.43242">
        <ele>578.8</ele>
        <time>2020-12-18T17:06:12Z</time>
      </trkpt>
      <trkpt lat="44.16889" lon="5.43248">
        <ele>580.7</ele>
        <time>2020-12-18T17:06:12Z</time>
      </trkpt>
      <trkpt lat="44.16917" lon="5.43263">
        <ele>578.8</ele>
        <time>2020-12-18T17:06:12Z</time>
      </trkpt>
      <trkpt lat="44.16939" lon="5.43293">
        <ele>577.8</ele>
        <time>2020-12-18T17:06:12Z</time>
      </trkpt>
      <trkpt lat="44.16976" lon="5.43346">
        <ele>576.6</ele>
        <time>2020-12-18T17:06:12Z</time>
      </trkpt>
      <trkpt lat="44.17009" lon="5.43382">
        <ele>575.9</ele>
        <time>2020-12-18T17:06:12Z</time>
      </trkpt>
      <trkpt lat="44.17042" lon="5.43409">
        <ele>575.6</ele>
        <time>2020-12-18T17:06:12Z</time>
      </trkpt>
      <trkpt lat="44.17077" lon="5.4344">
        <ele>575.8</ele>
        <time>2020-12-18T17:06:12Z</time>
      </trkpt>
      <trkpt lat="44.17135" lon="5.43492">
        <ele>577</ele>
        <time>2020-12-18T17:06:12Z</time>
      </trkpt>
      <trkpt lat="44.17168" lon="5.43527">
        <ele>577.9</ele>
        <time>2020-12-18T17:06:12Z</time>
      </trkpt>
      <trkpt lat="44.17195" lon="5.43556">
        <ele>578</ele>
        <time>2020-12-18T17:06:12Z</time>
      </trkpt>
      <trkpt lat="44.1722" lon="5.4358">
        <ele>578.1</ele>
        <time>2020-12-18T17:06:12Z</time>
      </trkpt>
      <trkpt lat="44.1722" lon="5.43669">
        <ele>580</ele>
        <time>2020-12-18T17:06:12Z</time>
      </trkpt>
      <trkpt lat="44.17239" lon="5.4384">
        <ele>584.6</ele>
        <time>2020-12-18T17:06:12Z</time>
      </trkpt>
      <trkpt lat="44.17248" lon="5.43955">
        <ele>588</ele>
        <time>2020-12-18T17:06:12Z</time>
      </trkpt>
      <trkpt lat="44.17258" lon="5.44025">
        <ele>589.9</ele>
        <time>2020-12-18T17:06:12Z</time>
      </trkpt>
      <trkpt lat="44.17283" lon="5.44044">
        <ele>590.6</ele>
        <time>2020-12-18T17:06:12Z</time>
      </trkpt>
      <trkpt lat="44.17297" lon="5.44065">
        <ele>591</ele>
        <time>2020-12-18T17:06:12Z</time>
      </trkpt>
      <trkpt lat="44.17315" lon="5.44102">
        <ele>591.7</ele>
        <time>2020-12-18T17:06:12Z</time>
      </trkpt>
      <trkpt lat="44.17332" lon="5.44125">
        <ele>592</ele>
        <time>2020-12-18T17:06:12Z</time>
      </trkpt>
      <trkpt lat="44.17375" lon="5.44166">
        <ele>591.5</ele>
        <time>2020-12-18T17:06:12Z</time>
      </trkpt>
      <trkpt lat="44.17376" lon="5.44184">
        <ele>591.5</ele>
        <time>2020-12-18T17:06:12Z</time>
      </trkpt>
      <trkpt lat="44.1732" lon="5.44213">
        <ele>593.8</ele>
        <time>2020-12-18T17:06:12Z</time>
      </trkpt>
      <trkpt lat="44.17278" lon="5.44226">
        <ele>594.1</ele>
        <time>2020-12-18T17:06:12Z</time>
      </trkpt>
      <trkpt lat="44.17263" lon="5.44279">
        <ele>595.6</ele>
        <time>2020-12-18T17:06:12Z</time>
      </trkpt>
      <trkpt lat="44.17253" lon="5.4432">
        <ele>597</ele>
        <time>2020-12-18T17:06:12Z</time>
      </trkpt>
      <trkpt lat="44.17254" lon="5.44349">
        <ele>597.6</ele>
        <time>2020-12-18T17:06:12Z</time>
      </trkpt>
      <trkpt lat="44.17264" lon="5.44436">
        <ele>599.8</ele>
        <time>2020-12-18T17:06:12Z</time>
      </trkpt>
      <trkpt lat="44.17275" lon="5.44528">
        <ele>603</ele>
        <time>2020-12-18T17:06:12Z</time>
      </trkpt>
      <trkpt lat="44.17294" lon="5.44574">
        <ele>603.8</ele>
        <time>2020-12-18T17:06:12Z</time>
      </trkpt>
      <trkpt lat="44.17341" lon="5.44538">
        <ele>602.3</ele>
        <time>2020-12-18T17:06:12Z</time>
      </trkpt>
      <trkpt lat="44.17371" lon="5.44516">
        <ele>601.4</ele>
        <time>2020-12-18T17:06:12Z</time>
      </trkpt>
      <trkpt lat="44.17395" lon="5.44511">
        <ele>600.9</ele>
        <time>2020-12-18T17:06:12Z</time>
      </trkpt>
      <trkpt lat="44.17421" lon="5.44514">
        <ele>600.3</ele>
        <time>2020-12-18T17:06:12Z</time>
      </trkpt>
      <trkpt lat="44.17441" lon="5.44516">
        <ele>599.7</ele>
        <time>2020-12-18T17:06:12Z</time>
      </trkpt>
      <trkpt lat="44.17434" lon="5.44577">
        <ele>602.8</ele>
        <time>2020-12-18T17:06:12Z</time>
      </trkpt>
      <trkpt lat="44.17431" lon="5.44604">
        <ele>603.7</ele>
        <time>2020-12-18T17:06:12Z</time>
      </trkpt>
      <trkpt lat="44.17448" lon="5.44637">
        <ele>604.9</ele>
        <time>2020-12-18T17:06:12Z</time>
      </trkpt>
      <trkpt lat="44.17469" lon="5.4468">
        <ele>607.4</ele>
        <time>2020-12-18T17:06:12Z</time>
      </trkpt>
      <trkpt lat="44.17539" lon="5.44703">
        <ele>608.3</ele>
        <time>2020-12-18T17:06:12Z</time>
      </trkpt>
      <trkpt lat="44.17536" lon="5.44749">
        <ele>610.9</ele>
        <time>2020-12-18T17:06:12Z</time>
      </trkpt>
      <trkpt lat="44.17545" lon="5.4478">
        <ele>613</ele>
        <time>2020-12-18T17:06:12Z</time>
      </trkpt>
      <trkpt lat="44.17567" lon="5.44789">
        <ele>613.4</ele>
        <time>2020-12-18T17:06:12Z</time>
      </trkpt>
      <trkpt lat="44.17603" lon="5.44789">
        <ele>614.3</ele>
        <time>2020-12-18T17:06:12Z</time>
      </trkpt>
    </trkseg>
  </trk>
</gpx>